Time,TemperatureF,DewpointF,PressureIn,WindDirection,WindDirectionDegrees,WindSpeedMPH,WindSpeedGustMPH,Humidity,HourlyPrecipIn,Conditions,Clouds,dailyrainin,SoftwareType,DateUTC
2013-05-28 00:00:00,55.0,53.3,29.35,WSW,238,0.0,0.0,94,0.00,,---,0.00,VWS V13.01,2013-05-28 07:00:00,
2013-05-28 00:01:00,54.9,53.5,29.35,WSW,238,0.0,0.0,95,0.00,,---,0.00,VWS V13.01,2013-05-28 07:01:00,
2013-05-28 00:05:00,54.9,53.5,29.35,WSW,238,0.0,0.0,95,0.00,,---,0.00,VWS V13.01,2013-05-28 07:05:00,
2013-05-28 00:06:00,54.9,53.5,29.35,WSW,238,0.0,0.0,95,0.00,,---,0.00,VWS V13.01,2013-05-28 07:06:00,
2013-05-28 00:07:00,54.9,53.5,29.35,WSW,238,0.0,0.0,95,0.00,,---,0.00,VWS V13.01,2013-05-28 07:07:00,
2013-05-28 00:10:00,54.9,53.5,29.35,WSW,238,0.0,0.0,95,0.00,,---,0.00,VWS V13.01,2013-05-28 07:10:00,
2013-05-28 00:11:00,54.9,53.5,29.35,WSW,238,0.0,0.0,95,0.00,,---,0.00,VWS V13.01,2013-05-28 07:11:00,
2013-05-28 00:12:00,54.9,53.5,29.35,WSW,238,0.0,0.0,95,0.00,,---,0.00,VWS V13.01,2013-05-28 07:12:00,
2013-05-28 00:15:00,54.9,53.5,29.35,WSW,238,0.0,0.0,95,0.00,,---,0.00,VWS V13.01,2013-05-28 07:15:00,
2013-05-28 00:16:00,54.9,53.5,29.35,WSW,238,0.0,0.0,95,0.00,,---,0.00,VWS V13.01,2013-05-28 07:16:00,
2013-05-28 00:17:00,54.9,53.5,29.35,WSW,238,0.0,0.0,95,0.00,,---,0.00,VWS V13.01,2013-05-28 07:17:00,
2013-05-28 00:20:00,54.9,53.5,29.35,WSW,238,0.0,0.0,95,0.00,,---,0.00,VWS V13.01,2013-05-28 07:20:00,
2013-05-28 00:21:00,54.9,53.5,29.35,WSW,238,0.0,0.0,95,0.00,,---,0.00,VWS V13.01,2013-05-28 07:21:00,
2013-05-28 00:22:00,54.9,53.5,29.35,WSW,238,0.0,0.0,95,0.00,,---,0.00,VWS V13.01,2013-05-28 07:22:00,
2013-05-28 00:25:00,54.9,53.5,29.35,WSW,238,0.0,0.0,95,0.00,,---,0.00,VWS V13.01,2013-05-28 07:25:00,
2013-05-28 00:26:00,54.9,53.5,29.35,WSW,238,0.0,0.0,95,0.00,,---,0.00,VWS V13.01,2013-05-28 07:26:00,
2013-05-28 00:28:00,54.9,53.5,29.35,WSW,250,3.1,3.1,95,0.00,,---,0.00,VWS V13.01,2013-05-28 07:28:00,
2013-05-28 00:31:00,54.9,53.5,29.35,West,272,2.7,2.7,95,0.00,,---,0.00,VWS V13.01,2013-05-28 07:31:00,
2013-05-28 00:33:00,54.9,53.5,29.35,West,265,6.7,6.7,95,0.00,,---,0.00,VWS V13.01,2013-05-28 07:33:00,
2013-05-28 00:36:00,54.9,53.5,29.35,SW,236,0.0,0.0,95,0.00,,---,0.00,VWS V13.01,2013-05-28 07:36:00,
2013-05-28 00:38:00,54.9,53.5,29.35,SW,236,0.0,0.0,95,0.00,,---,0.00,VWS V13.01,2013-05-28 07:38:00,
2013-05-28 00:41:00,54.9,53.5,29.35,SW,228,0.0,0.0,95,0.00,,---,0.00,VWS V13.01,2013-05-28 07:41:00,
2013-05-28 00:42:00,54.9,53.5,29.35,SW,228,0.0,0.0,95,0.00,,---,0.00,VWS V13.01,2013-05-28 07:42:00,
2013-05-28 00:43:00,54.9,53.5,29.35,SW,228,0.0,0.0,95,0.00,,---,0.00,VWS V13.01,2013-05-28 07:43:00,
2013-05-28 00:46:00,54.9,53.5,29.35,SW,228,0.0,0.0,95,0.00,,---,0.00,VWS V13.01,2013-05-28 07:46:00,
2013-05-28 00:47:00,54.3,52.6,29.35,SW,228,0.0,0.0,94,0.00,,---,0.00,VWS V13.01,2013-05-28 07:47:00,
2013-05-28 00:48:00,54.3,52.6,29.35,WSW,244,0.0,0.0,94,0.00,,---,0.00,VWS V13.01,2013-05-28 07:48:00,
2013-05-28 00:51:00,54.3,52.6,29.35,WSW,244,0.0,0.0,94,0.00,,---,0.00,VWS V13.01,2013-05-28 07:51:00,
2013-05-28 00:52:00,54.3,52.6,29.35,WSW,244,0.0,0.0,94,0.00,,---,0.00,VWS V13.01,2013-05-28 07:52:00,
2013-05-28 00:53:00,54.3,52.6,29.35,WSW,244,0.0,0.0,94,0.00,,---,0.00,VWS V13.01,2013-05-28 07:53:00,
2013-05-28 00:56:00,54.3,52.6,29.35,NW,308,0.0,0.0,94,0.00,,---,0.00,VWS V13.01,2013-05-28 07:56:00,
2013-05-28 00:57:00,54.3,52.6,29.35,NW,308,0.0,0.0,94,0.00,,---,0.00,VWS V13.01,2013-05-28 07:57:00,
2013-05-28 00:58:00,54.3,52.6,29.35,NW,308,0.0,0.0,94,0.00,,---,0.00,VWS V13.01,2013-05-28 07:58:00,
2013-05-28 01:01:00,54.3,52.6,29.35,NNE,31,0.0,0.0,94,0.00,,---,0.00,VWS V13.01,2013-05-28 08:01:00,
2013-05-28 01:02:00,54.3,52.6,29.35,NNE,31,0.0,0.0,94,0.00,,---,0.00,VWS V13.01,2013-05-28 08:02:00,
2013-05-28 01:03:00,54.3,52.6,29.35,NNE,31,0.0,0.0,94,0.00,,---,0.00,VWS V13.01,2013-05-28 08:03:00,
2013-05-28 01:06:00,54.3,52.6,29.35,NNE,31,0.0,0.0,94,0.00,,---,0.00,VWS V13.01,2013-05-28 08:06:00,
2013-05-28 01:07:00,54.3,52.6,29.35,NNE,31,0.0,0.0,94,0.00,,---,0.00,VWS V13.01,2013-05-28 08:07:00,
2013-05-28 01:08:00,54.3,52.6,29.35,WSW,255,0.0,0.0,94,0.00,,---,0.00,VWS V13.01,2013-05-28 08:08:00,
2013-05-28 01:11:00,54.3,52.6,29.35,WSW,255,0.0,0.0,94,0.00,,---,0.00,VWS V13.01,2013-05-28 08:11:00,
2013-05-28 01:12:00,54.3,52.6,29.35,WSW,255,0.0,0.0,94,0.00,,---,0.00,VWS V13.01,2013-05-28 08:12:00,
2013-05-28 01:13:00,54.3,52.6,29.35,WSW,255,0.0,0.0,94,0.00,,---,0.00,VWS V13.01,2013-05-28 08:13:00,
2013-05-28 01:17:00,54.0,52.3,29.35,West,280,0.0,0.0,94,0.00,,---,0.00,VWS V13.01,2013-05-28 08:17:00,
2013-05-28 01:18:00,54.0,52.3,29.35,West,280,0.0,0.0,94,0.00,,---,0.00,VWS V13.01,2013-05-28 08:18:00,
2013-05-28 01:22:00,54.0,52.3,29.35,West,280,0.0,0.0,94,0.00,,---,0.00,VWS V13.01,2013-05-28 08:22:00,
2013-05-28 01:23:00,54.0,52.3,29.35,West,280,0.0,0.0,94,0.00,,---,0.00,VWS V13.01,2013-05-28 08:23:00,
2013-05-28 01:24:00,54.0,52.3,29.35,WSW,241,2.7,2.7,94,0.00,,---,0.00,VWS V13.01,2013-05-28 08:24:00,
2013-05-28 01:27:00,54.0,52.3,29.35,SSE,154,0.0,0.0,94,0.00,,---,0.00,VWS V13.01,2013-05-28 08:27:00,
2013-05-28 01:28:00,54.0,52.3,29.35,SSE,154,0.0,0.0,94,0.00,,---,0.00,VWS V13.01,2013-05-28 08:28:00,
2013-05-28 01:29:00,54.0,52.3,29.35,SSE,154,0.0,0.0,94,0.00,,---,0.00,VWS V13.01,2013-05-28 08:29:00,
2013-05-28 01:32:00,54.0,52.3,29.35,West,264,0.0,0.0,94,0.00,,---,0.00,VWS V13.01,2013-05-28 08:32:00,
2013-05-28 01:33:00,54.0,52.3,29.35,West,264,0.0,0.0,94,0.00,,---,0.00,VWS V13.01,2013-05-28 08:33:00,
2013-05-28 01:34:00,54.0,52.3,29.38,West,264,0.0,0.0,94,0.00,,---,0.00,VWS V13.01,2013-05-28 08:34:00,
2013-05-28 01:37:00,54.0,52.3,29.38,SSW,201,0.0,2.7,94,0.00,,---,0.00,VWS V13.01,2013-05-28 08:37:00,
2013-05-28 01:38:00,54.0,52.3,29.38,SSW,201,0.0,2.7,94,0.00,,---,0.00,VWS V13.01,2013-05-28 08:38:00,
2013-05-28 01:39:00,54.0,52.3,29.38,SSW,201,0.0,0.0,94,0.00,,---,0.00,VWS V13.01,2013-05-28 08:39:00,
2013-05-28 01:42:00,54.1,52.5,29.38,SSW,201,0.0,0.0,94,0.00,,---,0.00,VWS V13.01,2013-05-28 08:42:00,
2013-05-28 01:43:00,54.1,52.5,29.38,SSW,201,0.0,0.0,94,0.00,,---,0.00,VWS V13.01,2013-05-28 08:43:00,
2013-05-28 01:44:00,54.1,52.5,29.38,SSW,201,0.0,0.0,94,0.00,,---,0.00,VWS V13.01,2013-05-28 08:44:00,
2013-05-28 01:47:00,54.1,52.5,29.38,SSW,201,0.0,0.0,94,0.00,,---,0.00,VWS V13.01,2013-05-28 08:47:00,
2013-05-28 01:48:00,54.1,52.5,29.38,SSW,201,0.0,0.0,94,0.00,,---,0.00,VWS V13.01,2013-05-28 08:48:00,
2013-05-28 01:49:00,54.1,52.5,29.38,SSW,201,0.0,0.0,94,0.00,,---,0.00,VWS V13.01,2013-05-28 08:49:00,
2013-05-28 01:52:00,54.0,52.3,29.38,SSW,201,0.0,0.0,94,0.00,,---,0.00,VWS V13.01,2013-05-28 08:52:00,
2013-05-28 01:53:00,54.0,52.3,29.38,SSW,201,0.0,0.0,94,0.00,,---,0.00,VWS V13.01,2013-05-28 08:53:00,
2013-05-28 01:54:00,54.0,52.3,29.38,SSW,201,0.0,0.0,94,0.00,,---,0.00,VWS V13.01,2013-05-28 08:54:00,
2013-05-28 01:55:00,54.0,52.3,29.38,SSW,201,0.0,0.0,94,0.00,,---,0.00,VWS V13.01,2013-05-28 08:55:00,
2013-05-28 01:57:00,54.0,52.3,29.38,SSW,201,0.0,0.0,94,0.00,,---,0.00,VWS V13.01,2013-05-28 08:57:00,
2013-05-28 01:58:00,54.0,52.3,29.38,SSW,201,0.0,0.0,94,0.00,,---,0.00,VWS V13.01,2013-05-28 08:58:00,
2013-05-28 01:59:00,54.0,52.3,29.38,SSW,201,0.0,0.0,94,0.00,,---,0.00,VWS V13.01,2013-05-28 08:59:00,
2013-05-28 02:00:00,54.0,52.3,29.38,SSW,201,0.0,0.0,94,0.00,,---,0.00,VWS V13.01,2013-05-28 09:00:00,
2013-05-28 02:02:00,54.0,52.3,29.38,SSW,201,0.0,0.0,94,0.00,,---,0.00,VWS V13.01,2013-05-28 09:02:00,
2013-05-28 02:03:00,54.0,52.3,29.38,SSW,201,0.0,0.0,94,0.00,,---,0.00,VWS V13.01,2013-05-28 09:03:00,
2013-05-28 02:04:00,54.0,52.3,29.38,SSW,201,0.0,0.0,94,0.00,,---,0.00,VWS V13.01,2013-05-28 09:04:00,
2013-05-28 02:05:00,54.0,52.3,29.38,SSW,201,0.0,0.0,94,0.00,,---,0.00,VWS V13.01,2013-05-28 09:05:00,
2013-05-28 02:07:00,54.0,52.3,29.38,SSW,201,0.0,0.0,94,0.00,,---,0.00,VWS V13.01,2013-05-28 09:07:00,
2013-05-28 02:08:00,54.0,52.3,29.38,SSW,201,0.0,0.0,94,0.00,,---,0.00,VWS V13.01,2013-05-28 09:08:00,
2013-05-28 02:09:00,54.0,52.3,29.38,SSW,201,0.0,0.0,94,0.00,,---,0.00,VWS V13.01,2013-05-28 09:09:00,
2013-05-28 02:10:00,54.0,52.3,29.38,SSW,201,0.0,0.0,94,0.00,,---,0.00,VWS V13.01,2013-05-28 09:10:00,
2013-05-28 02:13:00,54.0,52.3,29.38,SSE,149,0.0,0.0,94,0.00,,---,0.00,VWS V13.01,2013-05-28 09:13:00,
2013-05-28 02:14:00,54.0,52.3,29.38,SSE,149,0.0,0.0,94,0.00,,---,0.00,VWS V13.01,2013-05-28 09:14:00,
2013-05-28 02:15:00,54.0,52.3,29.38,WSW,238,0.0,0.0,94,0.00,,---,0.00,VWS V13.01,2013-05-28 09:15:00,
2013-05-28 02:18:00,53.8,52.1,29.38,WSW,238,0.0,0.0,94,0.00,,---,0.00,VWS V13.01,2013-05-28 09:18:00,
2013-05-28 02:19:00,53.8,52.1,29.38,SW,233,0.0,0.0,94,0.00,,---,0.00,VWS V13.01,2013-05-28 09:19:00,
2013-05-28 02:20:00,53.8,52.1,29.38,SW,233,0.0,0.0,94,0.00,,---,0.00,VWS V13.01,2013-05-28 09:20:00,
2013-05-28 02:23:00,53.8,52.1,29.38,SW,233,0.0,0.0,94,0.00,,---,0.00,VWS V13.01,2013-05-28 09:23:00,
2013-05-28 02:24:00,53.8,52.1,29.38,SW,233,0.0,0.0,94,0.00,,---,0.00,VWS V13.01,2013-05-28 09:24:00,
2013-05-28 02:25:00,53.8,52.1,29.38,SW,233,0.0,0.0,94,0.00,,---,0.00,VWS V13.01,2013-05-28 09:25:00,
2013-05-28 02:28:00,53.6,51.9,29.38,South,173,0.0,2.7,94,0.00,,---,0.00,VWS V13.01,2013-05-28 09:28:00,
2013-05-28 02:29:00,53.6,51.9,29.38,South,173,0.0,2.7,94,0.00,,---,0.00,VWS V13.01,2013-05-28 09:29:00,
2013-05-28 02:30:00,53.6,51.9,29.38,SW,233,0.0,0.0,94,0.00,,---,0.00,VWS V13.01,2013-05-28 09:30:00,
2013-05-28 02:33:00,53.6,51.9,29.38,SW,233,0.0,0.0,94,0.00,,---,0.00,VWS V13.01,2013-05-28 09:33:00,
2013-05-28 02:34:00,53.6,51.9,29.38,SW,233,0.0,0.0,94,0.00,,---,0.00,VWS V13.01,2013-05-28 09:34:00,
2013-05-28 02:35:00,53.6,51.9,29.38,SW,233,0.0,0.0,94,0.00,,---,0.00,VWS V13.01,2013-05-28 09:35:00,
2013-05-28 02:39:00,53.6,51.9,29.38,WSW,246,0.0,0.0,94,0.00,,---,0.00,VWS V13.01,2013-05-28 09:39:00,
2013-05-28 02:40:00,53.6,51.9,29.38,WSW,246,0.0,0.0,94,0.00,,---,0.00,VWS V13.01,2013-05-28 09:40:00,
2013-05-28 02:41:00,53.6,51.9,29.38,WSW,246,0.0,0.0,94,0.00,,---,0.00,VWS V13.01,2013-05-28 09:41:00,
2013-05-28 02:44:00,53.6,51.9,29.38,WSW,246,0.0,0.0,94,0.00,,---,0.00,VWS V13.01,2013-05-28 09:44:00,
2013-05-28 02:45:00,53.6,51.9,29.38,WSW,246,0.0,0.0,94,0.00,,---,0.00,VWS V13.01,2013-05-28 09:45:00,
2013-05-28 02:46:00,53.4,51.7,29.38,WSW,246,0.0,0.0,94,0.00,,---,0.00,VWS V13.01,2013-05-28 09:46:00,
2013-05-28 02:49:00,53.4,51.7,29.35,WSW,246,0.0,0.0,94,0.00,,---,0.00,VWS V13.01,2013-05-28 09:49:00,
2013-05-28 02:50:00,53.4,51.7,29.35,WSW,246,0.0,0.0,94,0.00,,---,0.00,VWS V13.01,2013-05-28 09:50:00,
2013-05-28 02:51:00,53.4,51.7,29.35,WSW,246,0.0,0.0,94,0.00,,---,0.00,VWS V13.01,2013-05-28 09:51:00,
2013-05-28 02:54:00,53.4,51.7,29.35,WSW,246,0.0,0.0,94,0.00,,---,0.00,VWS V13.01,2013-05-28 09:54:00,
2013-05-28 02:55:00,53.2,51.6,29.35,WSW,246,0.0,0.0,94,0.00,,---,0.00,VWS V13.01,2013-05-28 09:55:00,
2013-05-28 02:56:00,53.2,51.6,29.35,WSW,246,0.0,0.0,94,0.00,,---,0.00,VWS V13.01,2013-05-28 09:56:00,
2013-05-28 02:59:00,53.2,51.6,29.35,West,281,0.0,0.0,94,0.04,,---,0.04,VWS V13.01,2013-05-28 09:59:00,
2013-05-28 03:00:00,53.2,51.6,29.35,West,281,0.0,0.0,94,0.04,,---,0.04,VWS V13.01,2013-05-28 10:00:00,
2013-05-28 03:01:00,53.2,51.6,29.35,West,277,3.1,3.1,94,0.04,,---,0.04,VWS V13.01,2013-05-28 10:01:00,
2013-05-28 03:04:00,53.2,51.6,29.38,West,277,3.1,3.1,94,0.04,,---,0.04,VWS V13.01,2013-05-28 10:04:00,
2013-05-28 03:05:00,53.2,51.6,29.38,West,277,3.1,3.1,94,0.04,,---,0.04,VWS V13.01,2013-05-28 10:05:00,
2013-05-28 03:06:00,53.2,51.6,29.38,West,277,3.1,3.1,94,0.04,,---,0.04,VWS V13.01,2013-05-28 10:06:00,
2013-05-28 03:10:00,53.2,51.6,29.38,SW,233,2.7,2.7,94,0.04,,---,0.04,VWS V13.01,2013-05-28 10:10:00,
2013-05-28 03:11:00,53.2,51.6,29.38,SW,233,2.7,2.7,94,0.04,,---,0.04,VWS V13.01,2013-05-28 10:11:00,
2013-05-28 03:15:00,52.9,51.2,29.38,WSW,256,0.0,0.0,94,0.04,,---,0.04,VWS V13.01,2013-05-28 10:15:00,
2013-05-28 03:16:00,52.9,51.2,29.38,WSW,256,0.0,0.0,94,0.08,,---,0.08,VWS V13.01,2013-05-28 10:16:00,
2013-05-28 03:17:00,52.9,51.2,29.38,WSW,256,0.0,0.0,94,0.08,,---,0.08,VWS V13.01,2013-05-28 10:17:00,
2013-05-28 03:20:00,52.9,51.2,29.38,WSW,256,0.0,0.0,94,0.08,,---,0.08,VWS V13.01,2013-05-28 10:20:00,
2013-05-28 03:21:00,52.9,51.2,29.38,WSW,256,0.0,0.0,94,0.08,,---,0.08,VWS V13.01,2013-05-28 10:21:00,
2013-05-28 03:22:00,52.9,51.2,29.38,WSW,256,0.0,0.0,94,0.08,,---,0.08,VWS V13.01,2013-05-28 10:22:00,
2013-05-28 03:25:00,52.9,51.2,29.38,West,260,0.0,0.0,94,0.08,,---,0.08,VWS V13.01,2013-05-28 10:25:00,
2013-05-28 03:26:00,52.9,51.2,29.38,West,260,0.0,0.0,94,0.08,,---,0.08,VWS V13.01,2013-05-28 10:26:00,
2013-05-28 03:27:00,52.9,51.2,29.38,West,260,0.0,0.0,94,0.08,,---,0.08,VWS V13.01,2013-05-28 10:27:00,
2013-05-28 03:30:00,52.9,51.2,29.38,West,260,0.0,0.0,94,0.08,,---,0.08,VWS V13.01,2013-05-28 10:30:00,
2013-05-28 03:31:00,52.9,51.5,29.38,West,260,0.0,0.0,95,0.08,,---,0.08,VWS V13.01,2013-05-28 10:31:00,
2013-05-28 03:32:00,52.9,51.5,29.38,West,260,0.0,0.0,95,0.08,,---,0.08,VWS V13.01,2013-05-28 10:32:00,
2013-05-28 03:35:00,52.9,51.5,29.38,West,260,0.0,0.0,95,0.08,,---,0.08,VWS V13.01,2013-05-28 10:35:00,
2013-05-28 03:36:00,52.9,51.5,29.38,West,260,0.0,0.0,95,0.08,,---,0.08,VWS V13.01,2013-05-28 10:36:00,
2013-05-28 03:37:00,52.9,51.5,29.38,West,260,0.0,0.0,95,0.08,,---,0.08,VWS V13.01,2013-05-28 10:37:00,
2013-05-28 03:40:00,52.9,51.5,29.38,West,260,0.0,0.0,95,0.08,,---,0.08,VWS V13.01,2013-05-28 10:40:00,
2013-05-28 03:41:00,52.9,51.5,29.38,West,260,0.0,0.0,95,0.08,,---,0.08,VWS V13.01,2013-05-28 10:41:00,
2013-05-28 03:42:00,52.9,51.5,29.38,West,260,0.0,0.0,95,0.08,,---,0.08,VWS V13.01,2013-05-28 10:42:00,
2013-05-28 03:46:00,52.9,51.5,29.38,West,260,0.0,0.0,95,0.08,,---,0.08,VWS V13.01,2013-05-28 10:46:00,
2013-05-28 03:47:00,52.9,51.5,29.38,West,260,0.0,0.0,95,0.08,,---,0.08,VWS V13.01,2013-05-28 10:47:00,
2013-05-28 03:51:00,52.9,51.5,29.38,West,260,0.0,0.0,95,0.08,,---,0.08,VWS V13.01,2013-05-28 10:51:00,
2013-05-28 03:52:00,52.9,51.5,29.38,West,260,0.0,0.0,95,0.08,,---,0.08,VWS V13.01,2013-05-28 10:52:00,
2013-05-28 03:56:00,52.9,51.5,29.38,West,260,0.0,0.0,95,0.08,,---,0.08,VWS V13.01,2013-05-28 10:56:00,
2013-05-28 03:57:00,52.9,51.5,29.38,West,260,0.0,0.0,95,0.08,,---,0.08,VWS V13.01,2013-05-28 10:57:00,
2013-05-28 04:01:00,52.9,51.5,29.38,West,260,0.0,0.0,95,0.04,,---,0.08,VWS V13.01,2013-05-28 11:01:00,
2013-05-28 04:02:00,52.9,51.5,29.38,West,260,0.0,0.0,95,0.04,,---,0.08,VWS V13.01,2013-05-28 11:02:00,
2013-05-28 04:06:00,52.9,51.5,29.38,West,260,0.0,0.0,95,0.04,,---,0.08,VWS V13.01,2013-05-28 11:06:00,
2013-05-28 04:07:00,52.9,51.5,29.38,West,260,0.0,0.0,95,0.04,,---,0.08,VWS V13.01,2013-05-28 11:07:00,
2013-05-28 04:08:00,52.9,51.5,29.38,West,260,0.0,0.0,95,0.04,,---,0.08,VWS V13.01,2013-05-28 11:08:00,
2013-05-28 04:11:00,52.9,51.5,29.38,West,260,0.0,0.0,95,0.04,,---,0.08,VWS V13.01,2013-05-28 11:11:00,
2013-05-28 04:12:00,52.9,51.5,29.38,West,260,0.0,0.0,95,0.04,,---,0.08,VWS V13.01,2013-05-28 11:12:00,
2013-05-28 04:16:00,52.9,51.5,29.38,West,260,0.0,0.0,95,0.04,,---,0.08,VWS V13.01,2013-05-28 11:16:00,
2013-05-28 04:17:00,52.9,51.5,29.38,West,260,0.0,0.0,95,0.00,,---,0.08,VWS V13.01,2013-05-28 11:17:00,
2013-05-28 04:18:00,52.9,51.5,29.38,West,260,0.0,0.0,95,0.00,,---,0.08,VWS V13.01,2013-05-28 11:18:00,
2013-05-28 04:21:00,52.9,51.5,29.38,West,260,0.0,0.0,95,0.00,,---,0.08,VWS V13.01,2013-05-28 11:21:00,
2013-05-28 04:22:00,52.9,51.5,29.38,West,260,0.0,0.0,95,0.00,,---,0.08,VWS V13.01,2013-05-28 11:22:00,
2013-05-28 04:23:00,52.9,51.5,29.38,West,260,0.0,0.0,95,0.00,,---,0.08,VWS V13.01,2013-05-28 11:23:00,
2013-05-28 04:27:00,52.9,51.5,29.38,West,260,0.0,0.0,95,0.00,,---,0.08,VWS V13.01,2013-05-28 11:27:00,
2013-05-28 04:28:00,52.9,51.5,29.38,West,260,0.0,0.0,95,0.00,,---,0.08,VWS V13.01,2013-05-28 11:28:00,
2013-05-28 04:32:00,52.9,51.5,29.38,West,260,0.0,0.0,95,0.00,,---,0.08,VWS V13.01,2013-05-28 11:32:00,
2013-05-28 04:33:00,52.9,51.5,29.38,West,260,0.0,0.0,95,0.00,,---,0.08,VWS V13.01,2013-05-28 11:33:00,
2013-05-28 04:34:00,52.9,51.5,29.38,West,260,0.0,0.0,95,0.00,,---,0.08,VWS V13.01,2013-05-28 11:34:00,
2013-05-28 04:37:00,52.7,51.3,29.38,West,260,0.0,0.0,95,0.00,,---,0.08,VWS V13.01,2013-05-28 11:37:00,
2013-05-28 04:38:00,52.7,51.3,29.38,West,260,0.0,0.0,95,0.00,,---,0.08,VWS V13.01,2013-05-28 11:38:00,
2013-05-28 04:39:00,52.7,51.3,29.38,West,260,0.0,0.0,95,0.00,,---,0.08,VWS V13.01,2013-05-28 11:39:00,
2013-05-28 04:42:00,52.7,51.3,29.38,West,260,0.0,0.0,95,0.00,,---,0.08,VWS V13.01,2013-05-28 11:42:00,
2013-05-28 04:43:00,52.7,51.3,29.38,West,260,0.0,0.0,95,0.00,,---,0.08,VWS V13.01,2013-05-28 11:43:00,
2013-05-28 04:44:00,52.7,51.3,29.38,West,260,0.0,0.0,95,0.00,,---,0.08,VWS V13.01,2013-05-28 11:44:00,
2013-05-28 04:47:00,52.7,51.3,29.38,West,260,0.0,0.0,95,0.00,,---,0.08,VWS V13.01,2013-05-28 11:47:00,
2013-05-28 04:48:00,52.7,51.3,29.38,West,260,0.0,0.0,95,0.00,,---,0.08,VWS V13.01,2013-05-28 11:48:00,
2013-05-28 04:49:00,52.7,51.3,29.38,West,260,0.0,0.0,95,0.00,,---,0.08,VWS V13.01,2013-05-28 11:49:00,
2013-05-28 04:52:00,52.7,51.3,29.38,West,260,0.0,0.0,95,0.00,,---,0.08,VWS V13.01,2013-05-28 11:52:00,
2013-05-28 04:53:00,52.7,51.3,29.38,West,260,0.0,0.0,95,0.00,,---,0.08,VWS V13.01,2013-05-28 11:53:00,
2013-05-28 04:54:00,52.7,51.3,29.38,West,260,0.0,0.0,95,0.00,,---,0.08,VWS V13.01,2013-05-28 11:54:00,
2013-05-28 04:57:00,52.7,51.3,29.38,West,260,0.0,0.0,95,0.00,,---,0.08,VWS V13.01,2013-05-28 11:57:00,
2013-05-28 04:58:00,52.7,51.3,29.38,West,260,0.0,0.0,95,0.00,,---,0.08,VWS V13.01,2013-05-28 11:58:00,
2013-05-28 04:59:00,52.7,51.3,29.38,West,260,0.0,0.0,95,0.00,,---,0.08,VWS V13.01,2013-05-28 11:59:00,
2013-05-28 05:02:00,52.7,51.3,29.41,West,260,0.0,0.0,95,0.00,,---,0.08,VWS V13.01,2013-05-28 12:02:00,
2013-05-28 05:03:00,52.7,51.3,29.41,West,260,0.0,0.0,95,0.00,,---,0.08,VWS V13.01,2013-05-28 12:03:00,
2013-05-28 05:04:00,52.7,51.3,29.41,West,260,0.0,0.0,95,0.00,,---,0.08,VWS V13.01,2013-05-28 12:04:00,
2013-05-28 05:05:00,52.7,51.3,29.41,West,260,0.0,0.0,95,0.00,,---,0.08,VWS V13.01,2013-05-28 12:05:00,
2013-05-28 05:07:00,52.7,51.3,29.41,West,260,0.0,0.0,95,0.00,,---,0.08,VWS V13.01,2013-05-28 12:07:00,
2013-05-28 05:08:00,52.7,51.3,29.41,West,260,0.0,0.0,95,0.00,,---,0.08,VWS V13.01,2013-05-28 12:08:00,
2013-05-28 05:09:00,52.7,51.3,29.41,West,260,0.0,0.0,95,0.00,,---,0.08,VWS V13.01,2013-05-28 12:09:00,
2013-05-28 05:10:00,52.7,51.3,29.41,West,260,0.0,0.0,95,0.00,,---,0.08,VWS V13.01,2013-05-28 12:10:00,
2013-05-28 05:12:00,52.5,51.1,29.41,West,260,0.0,0.0,95,0.00,,---,0.08,VWS V13.01,2013-05-28 12:12:00,
2013-05-28 05:13:00,52.5,51.1,29.41,West,260,0.0,0.0,95,0.00,,---,0.08,VWS V13.01,2013-05-28 12:13:00,
2013-05-28 05:14:00,52.5,51.1,29.41,West,260,0.0,0.0,95,0.00,,---,0.08,VWS V13.01,2013-05-28 12:14:00,
2013-05-28 05:16:00,52.5,51.1,29.41,West,260,0.0,0.0,95,0.00,,---,0.08,VWS V13.01,2013-05-28 12:16:00,
2013-05-28 05:18:00,52.5,51.1,29.41,West,260,0.0,0.0,95,0.00,,---,0.08,VWS V13.01,2013-05-28 12:18:00,
2013-05-28 05:19:00,52.5,51.1,29.41,West,260,0.0,0.0,95,0.00,,---,0.08,VWS V13.01,2013-05-28 12:19:00,
2013-05-28 05:21:00,52.5,51.1,29.41,West,260,0.0,0.0,95,0.00,,---,0.08,VWS V13.01,2013-05-28 12:21:00,
2013-05-28 05:23:00,52.5,51.1,29.41,West,260,0.0,0.0,95,0.00,,---,0.08,VWS V13.01,2013-05-28 12:23:00,
2013-05-28 05:24:00,52.5,51.1,29.41,West,260,0.0,0.0,95,0.00,,---,0.08,VWS V13.01,2013-05-28 12:24:00,
2013-05-28 05:26:00,52.5,51.1,29.41,West,260,0.0,0.0,95,0.00,,---,0.08,VWS V13.01,2013-05-28 12:26:00,
2013-05-28 05:28:00,52.5,51.1,29.41,West,260,0.0,0.0,95,0.00,,---,0.08,VWS V13.01,2013-05-28 12:28:00,
2013-05-28 05:29:00,52.5,51.1,29.41,West,260,0.0,0.0,95,0.00,,---,0.08,VWS V13.01,2013-05-28 12:29:00,
2013-05-28 05:31:00,52.3,51.0,29.41,West,260,0.0,0.0,95,0.00,,---,0.08,VWS V13.01,2013-05-28 12:31:00,
2013-05-28 05:33:00,52.3,51.0,29.41,West,260,0.0,0.0,95,0.00,,---,0.08,VWS V13.01,2013-05-28 12:33:00,
2013-05-28 05:34:00,52.3,51.0,29.41,West,260,0.0,0.0,95,0.00,,---,0.08,VWS V13.01,2013-05-28 12:34:00,
2013-05-28 05:37:00,52.3,51.0,29.41,West,260,0.0,0.0,95,0.00,,---,0.08,VWS V13.01,2013-05-28 12:37:00,
2013-05-28 05:38:00,52.3,51.0,29.41,West,260,0.0,0.0,95,0.00,,---,0.08,VWS V13.01,2013-05-28 12:38:00,
2013-05-28 05:39:00,52.3,51.0,29.41,West,260,0.0,0.0,95,0.00,,---,0.08,VWS V13.01,2013-05-28 12:39:00,
2013-05-28 05:42:00,52.3,51.0,29.41,West,260,0.0,0.0,95,0.00,,---,0.08,VWS V13.01,2013-05-28 12:42:00,
2013-05-28 05:44:00,52.3,51.0,29.41,West,260,0.0,0.0,95,0.00,,---,0.08,VWS V13.01,2013-05-28 12:44:00,
2013-05-28 05:45:00,52.3,51.0,29.41,West,260,0.0,0.0,95,0.00,,---,0.08,VWS V13.01,2013-05-28 12:45:00,
2013-05-28 05:47:00,52.5,51.1,29.41,West,260,0.0,0.0,95,0.00,,---,0.08,VWS V13.01,2013-05-28 12:47:00,
2013-05-28 05:49:00,52.5,51.1,29.41,West,260,0.0,0.0,95,0.00,,---,0.08,VWS V13.01,2013-05-28 12:49:00,
2013-05-28 05:50:00,52.5,51.1,29.41,West,260,0.0,0.0,95,0.00,,---,0.08,VWS V13.01,2013-05-28 12:50:00,
2013-05-28 05:52:00,52.5,51.1,29.41,West,260,0.0,0.0,95,0.00,,---,0.08,VWS V13.01,2013-05-28 12:52:00,
2013-05-28 05:54:00,52.5,51.1,29.41,West,260,0.0,0.0,95,0.00,,---,0.08,VWS V13.01,2013-05-28 12:54:00,
2013-05-28 05:55:00,52.5,51.1,29.41,West,260,0.0,0.0,95,0.00,,---,0.08,VWS V13.01,2013-05-28 12:55:00,
2013-05-28 05:57:00,52.3,51.0,29.41,West,260,0.0,0.0,95,0.00,,---,0.08,VWS V13.01,2013-05-28 12:57:00,
2013-05-28 05:59:00,52.3,51.0,29.41,West,260,0.0,0.0,95,0.00,,---,0.08,VWS V13.01,2013-05-28 12:59:00,
2013-05-28 06:00:00,52.3,51.0,29.41,West,260,0.0,0.0,95,0.00,,---,0.08,VWS V13.01,2013-05-28 13:00:00,
2013-05-28 06:02:00,52.3,51.0,29.41,West,260,0.0,0.0,95,0.00,,---,0.08,VWS V13.01,2013-05-28 13:02:00,
2013-05-28 06:04:00,52.3,51.0,29.41,West,260,0.0,0.0,95,0.00,,---,0.08,VWS V13.01,2013-05-28 13:04:00,
2013-05-28 06:05:00,52.3,51.0,29.41,West,260,0.0,0.0,95,0.00,,---,0.08,VWS V13.01,2013-05-28 13:05:00,
2013-05-28 06:07:00,52.3,51.0,29.41,West,260,0.0,0.0,95,0.00,,---,0.08,VWS V13.01,2013-05-28 13:07:00,
2013-05-28 06:09:00,52.3,51.0,29.41,SSW,192,0.0,0.0,95,0.00,,---,0.08,VWS V13.01,2013-05-28 13:09:00,
2013-05-28 06:10:00,52.3,51.0,29.41,SSW,192,0.0,0.0,95,0.00,,---,0.08,VWS V13.01,2013-05-28 13:10:00,
2013-05-28 06:12:00,52.3,51.0,29.41,SSW,192,0.0,0.0,95,0.00,,---,0.08,VWS V13.01,2013-05-28 13:12:00,
2013-05-28 06:14:00,52.3,51.0,29.41,SSW,192,0.0,0.0,95,0.00,,---,0.08,VWS V13.01,2013-05-28 13:14:00,
2013-05-28 06:15:00,52.2,50.8,29.41,SSW,192,0.0,0.0,95,0.00,,---,0.08,VWS V13.01,2013-05-28 13:15:00,
2013-05-28 06:17:00,52.2,50.8,29.41,WSW,246,0.0,0.0,95,0.00,,---,0.08,VWS V13.01,2013-05-28 13:17:00,
2013-05-28 06:19:00,52.2,50.8,29.41,SW,226,0.0,0.0,95,0.00,,---,0.08,VWS V13.01,2013-05-28 13:19:00,
2013-05-28 06:20:00,52.2,50.8,29.41,SW,226,0.0,0.0,95,0.00,,---,0.08,VWS V13.01,2013-05-28 13:20:00,
2013-05-28 06:21:00,52.2,50.8,29.41,SW,226,0.0,0.0,95,0.00,,---,0.08,VWS V13.01,2013-05-28 13:21:00,
2013-05-28 06:22:00,52.2,50.8,29.41,SW,226,0.0,0.0,95,0.00,,---,0.08,VWS V13.01,2013-05-28 13:22:00,
2013-05-28 06:25:00,52.3,51.0,29.41,SW,226,0.0,0.0,95,0.00,,---,0.08,VWS V13.01,2013-05-28 13:25:00,
2013-05-28 06:26:00,52.3,51.0,29.41,SW,226,0.0,0.0,95,0.00,,---,0.08,VWS V13.01,2013-05-28 13:26:00,
2013-05-28 06:27:00,52.3,51.0,29.41,West,268,2.2,2.2,95,0.00,,---,0.08,VWS V13.01,2013-05-28 13:27:00,
2013-05-28 06:30:00,52.3,51.0,29.41,SW,220,0.0,0.0,95,0.00,,---,0.08,VWS V13.01,2013-05-28 13:30:00,
2013-05-28 06:31:00,52.3,51.0,29.41,SW,220,0.0,0.0,95,0.00,,---,0.08,VWS V13.01,2013-05-28 13:31:00,
2013-05-28 06:33:00,52.5,51.1,29.41,SW,220,0.0,0.0,95,0.00,,---,0.08,VWS V13.01,2013-05-28 13:33:00,
2013-05-28 06:35:00,52.5,51.1,29.41,SSW,197,0.0,0.0,95,0.00,,---,0.08,VWS V13.01,2013-05-28 13:35:00,
2013-05-28 06:36:00,52.5,51.1,29.41,SSW,197,0.0,0.0,95,0.00,,---,0.08,VWS V13.01,2013-05-28 13:36:00,
2013-05-28 06:38:00,52.5,51.1,29.41,SSW,197,0.0,0.0,95,0.00,,---,0.08,VWS V13.01,2013-05-28 13:38:00,
2013-05-28 06:40:00,52.5,51.1,29.41,SSW,203,0.0,0.0,95,0.00,,---,0.08,VWS V13.01,2013-05-28 13:40:00,
2013-05-28 06:41:00,52.5,51.1,29.41,SSW,203,0.0,0.0,95,0.00,,---,0.08,VWS V13.01,2013-05-28 13:41:00,
2013-05-28 06:43:00,52.5,51.1,29.41,SSW,203,0.0,0.0,95,0.00,,---,0.08,VWS V13.01,2013-05-28 13:43:00,
2013-05-28 06:45:00,52.5,51.1,29.41,SSW,203,0.0,0.0,95,0.00,,---,0.08,VWS V13.01,2013-05-28 13:45:00,
2013-05-28 06:46:00,52.5,51.1,29.41,SSW,203,0.0,0.0,95,0.00,,---,0.08,VWS V13.01,2013-05-28 13:46:00,
2013-05-28 06:48:00,52.5,51.1,29.41,SE,127,0.0,0.0,95,0.00,,---,0.08,VWS V13.01,2013-05-28 13:48:00,
2013-05-28 06:50:00,52.5,51.1,29.41,SE,127,0.0,0.0,95,0.00,,---,0.08,VWS V13.01,2013-05-28 13:50:00,
2013-05-28 06:51:00,52.5,51.1,29.41,SE,127,0.0,0.0,95,0.00,,---,0.08,VWS V13.01,2013-05-28 13:51:00,
2013-05-28 06:53:00,52.5,51.1,29.41,SE,127,0.0,0.0,95,0.00,,---,0.08,VWS V13.01,2013-05-28 13:53:00,
2013-05-28 06:55:00,52.5,51.1,29.41,SE,127,0.0,0.0,95,0.00,,---,0.08,VWS V13.01,2013-05-28 13:55:00,
2013-05-28 06:56:00,52.5,51.1,29.41,SE,127,0.0,0.0,95,0.00,,---,0.08,VWS V13.01,2013-05-28 13:56:00,
2013-05-28 06:59:00,52.5,51.1,29.41,SE,127,0.0,0.0,95,0.00,,---,0.08,VWS V13.01,2013-05-28 13:59:00,
2013-05-28 07:00:00,52.7,51.3,29.41,SE,127,0.0,0.0,95,0.00,,---,0.08,VWS V13.01,2013-05-28 14:00:00,
2013-05-28 07:01:00,52.7,51.3,29.41,SE,127,0.0,0.0,95,0.00,,---,0.08,VWS V13.01,2013-05-28 14:01:00,
2013-05-28 07:04:00,52.7,51.3,29.41,SE,127,0.0,0.0,95,0.00,,---,0.08,VWS V13.01,2013-05-28 14:04:00,
2013-05-28 07:05:00,52.7,51.3,29.41,SE,127,0.0,0.0,95,0.00,,---,0.08,VWS V13.01,2013-05-28 14:05:00,
2013-05-28 07:06:00,52.7,51.3,29.41,SE,127,0.0,0.0,95,0.00,,---,0.08,VWS V13.01,2013-05-28 14:06:00,
2013-05-28 07:07:00,52.7,51.3,29.41,SE,127,0.0,0.0,95,0.00,,---,0.08,VWS V13.01,2013-05-28 14:07:00,
2013-05-28 07:09:00,52.7,51.3,29.41,SE,127,0.0,0.0,95,0.00,,---,0.08,VWS V13.01,2013-05-28 14:09:00,
2013-05-28 07:10:00,52.7,51.6,29.41,SE,127,0.0,0.0,96,0.00,,---,0.08,VWS V13.01,2013-05-28 14:10:00,
2013-05-28 07:11:00,52.7,51.6,29.41,SE,127,0.0,0.0,96,0.00,,---,0.08,VWS V13.01,2013-05-28 14:11:00,
2013-05-28 07:12:00,52.7,51.6,29.41,SE,127,0.0,0.0,96,0.00,,---,0.08,VWS V13.01,2013-05-28 14:12:00,
2013-05-28 07:14:00,52.7,51.6,29.41,SE,127,0.0,0.0,96,0.00,,---,0.08,VWS V13.01,2013-05-28 14:14:00,
2013-05-28 07:16:00,52.7,51.6,29.41,SE,127,0.0,0.0,96,0.00,,---,0.08,VWS V13.01,2013-05-28 14:16:00,
2013-05-28 07:17:00,52.7,51.6,29.41,SE,127,0.0,0.0,96,0.00,,---,0.08,VWS V13.01,2013-05-28 14:17:00,
2013-05-28 07:19:00,52.9,51.8,29.41,SE,127,0.0,0.0,96,0.00,,---,0.08,VWS V13.01,2013-05-28 14:19:00,
2013-05-28 07:21:00,52.9,51.8,29.41,SE,127,0.0,0.0,96,0.00,,---,0.08,VWS V13.01,2013-05-28 14:21:00,
2013-05-28 07:22:00,52.9,51.8,29.41,SE,127,0.0,0.0,96,0.00,,---,0.08,VWS V13.01,2013-05-28 14:22:00,
2013-05-28 07:24:00,52.9,51.8,29.41,SE,127,0.0,0.0,96,0.00,,---,0.08,VWS V13.01,2013-05-28 14:24:00,
2013-05-28 07:26:00,52.9,51.8,29.41,SE,127,0.0,0.0,96,0.00,,---,0.08,VWS V13.01,2013-05-28 14:26:00,
2013-05-28 07:27:00,52.9,51.8,29.41,SE,127,0.0,0.0,96,0.00,,---,0.08,VWS V13.01,2013-05-28 14:27:00,
2013-05-28 07:28:00,52.9,51.8,29.41,SE,127,0.0,0.0,96,0.00,,---,0.08,VWS V13.01,2013-05-28 14:28:00,
2013-05-28 07:30:00,52.9,51.8,29.41,SE,127,0.0,0.0,96,0.00,,---,0.08,VWS V13.01,2013-05-28 14:30:00,
2013-05-28 07:31:00,52.9,51.8,29.41,SE,127,0.0,0.0,96,0.00,,---,0.08,VWS V13.01,2013-05-28 14:31:00,
2013-05-28 07:32:00,52.9,51.8,29.41,SE,127,0.0,0.0,96,0.00,,---,0.08,VWS V13.01,2013-05-28 14:32:00,
2013-05-28 07:33:00,52.9,51.8,29.41,SE,127,0.0,0.0,96,0.00,,---,0.08,VWS V13.01,2013-05-28 14:33:00,
2013-05-28 07:35:00,52.9,51.8,29.41,SE,127,0.0,0.0,96,0.00,,---,0.08,VWS V13.01,2013-05-28 14:35:00,
2013-05-28 07:36:00,52.9,51.8,29.41,SE,127,0.0,0.0,96,0.00,,---,0.08,VWS V13.01,2013-05-28 14:36:00,
2013-05-28 07:37:00,52.9,51.8,29.41,SE,127,0.0,0.0,96,0.00,,---,0.08,VWS V13.01,2013-05-28 14:37:00,
2013-05-28 07:38:00,52.9,51.8,29.41,SE,127,0.0,0.0,96,0.00,,---,0.08,VWS V13.01,2013-05-28 14:38:00,
2013-05-28 07:40:00,52.9,51.8,29.41,SE,127,0.0,0.0,96,0.00,,---,0.08,VWS V13.01,2013-05-28 14:40:00,
2013-05-28 07:41:00,52.9,51.8,29.41,SE,127,0.0,0.0,96,0.00,,---,0.08,VWS V13.01,2013-05-28 14:41:00,
2013-05-28 07:42:00,52.9,51.8,29.41,SE,127,0.0,0.0,96,0.00,,---,0.08,VWS V13.01,2013-05-28 14:42:00,
2013-05-28 07:43:00,52.9,51.8,29.41,SE,127,0.0,0.0,96,0.00,,---,0.08,VWS V13.01,2013-05-28 14:43:00,
2013-05-28 07:45:00,52.9,51.8,29.41,SE,127,0.0,0.0,96,0.00,,---,0.08,VWS V13.01,2013-05-28 14:45:00,
2013-05-28 07:46:00,52.9,51.8,29.41,SE,127,0.0,0.0,96,0.00,,---,0.08,VWS V13.01,2013-05-28 14:46:00,
2013-05-28 07:47:00,52.9,51.8,29.41,SE,127,0.0,0.0,96,0.00,,---,0.08,VWS V13.01,2013-05-28 14:47:00,
2013-05-28 07:48:00,52.9,51.8,29.41,SE,127,0.0,0.0,96,0.00,,---,0.08,VWS V13.01,2013-05-28 14:48:00,
2013-05-28 07:50:00,52.9,51.8,29.41,SE,127,0.0,0.0,96,0.00,,---,0.08,VWS V13.01,2013-05-28 14:50:00,
2013-05-28 07:51:00,52.9,51.8,29.41,SE,127,0.0,0.0,96,0.00,,---,0.08,VWS V13.01,2013-05-28 14:51:00,
2013-05-28 07:52:00,52.9,51.8,29.41,SE,127,0.0,0.0,96,0.00,,---,0.08,VWS V13.01,2013-05-28 14:52:00,
2013-05-28 07:53:00,52.9,51.8,29.41,SE,127,0.0,0.0,96,0.00,,---,0.08,VWS V13.01,2013-05-28 14:53:00,
2013-05-28 07:55:00,53.1,52.0,29.41,SE,127,0.0,0.0,96,0.00,,---,0.08,VWS V13.01,2013-05-28 14:55:00,
2013-05-28 07:56:00,53.1,52.0,29.41,SE,127,0.0,0.0,96,0.00,,---,0.08,VWS V13.01,2013-05-28 14:56:00,
2013-05-28 07:57:00,53.1,52.0,29.41,SE,127,0.0,0.0,96,0.00,,---,0.08,VWS V13.01,2013-05-28 14:57:00,
2013-05-28 07:58:00,53.1,52.0,29.41,SE,127,0.0,0.0,96,0.00,,---,0.08,VWS V13.01,2013-05-28 14:58:00,
2013-05-28 08:01:00,53.1,52.0,29.41,SE,127,0.0,0.0,96,0.00,,---,0.08,VWS V13.01,2013-05-28 15:01:00,
2013-05-28 08:02:00,53.1,52.0,29.41,SE,127,0.0,0.0,96,0.00,,---,0.08,VWS V13.01,2013-05-28 15:02:00,
2013-05-28 08:03:00,53.1,52.0,29.41,SE,127,0.0,0.0,96,0.00,,---,0.08,VWS V13.01,2013-05-28 15:03:00,
2013-05-28 08:06:00,53.1,52.0,29.41,SE,127,0.0,0.0,96,0.00,,---,0.08,VWS V13.01,2013-05-28 15:06:00,
2013-05-28 08:07:00,53.1,52.0,29.41,WSW,257,0.0,0.0,96,0.00,,---,0.08,VWS V13.01,2013-05-28 15:07:00,
2013-05-28 08:09:00,53.1,52.0,29.41,WSW,257,0.0,0.0,96,0.00,,---,0.08,VWS V13.01,2013-05-28 15:09:00,
2013-05-28 08:11:00,53.1,52.0,29.41,East,87,0.0,0.0,96,0.00,,---,0.08,VWS V13.01,2013-05-28 15:11:00,
2013-05-28 08:12:00,53.1,52.0,29.41,East,87,0.0,0.0,96,0.00,,---,0.08,VWS V13.01,2013-05-28 15:12:00,
2013-05-28 08:14:00,53.4,52.3,29.41,East,87,0.0,0.0,96,0.00,,---,0.08,VWS V13.01,2013-05-28 15:14:00,
2013-05-28 08:16:00,53.4,52.3,29.41,ESE,113,0.0,0.0,96,0.00,,---,0.08,VWS V13.01,2013-05-28 15:16:00,
2013-05-28 08:17:00,53.4,52.3,29.41,ESE,113,0.0,0.0,96,0.00,,---,0.08,VWS V13.01,2013-05-28 15:17:00,
2013-05-28 08:19:00,53.4,52.3,29.41,ESE,113,0.0,0.0,96,0.00,,---,0.08,VWS V13.01,2013-05-28 15:19:00,
2013-05-28 08:21:00,53.4,52.3,29.41,ESE,113,0.0,0.0,96,0.00,,---,0.08,VWS V13.01,2013-05-28 15:21:00,
2013-05-28 08:22:00,53.4,52.0,29.41,ESE,113,0.0,0.0,95,0.00,,---,0.08,VWS V13.01,2013-05-28 15:22:00,
2013-05-28 08:23:00,53.4,52.0,29.41,ESE,113,0.0,0.0,95,0.00,,---,0.08,VWS V13.01,2013-05-28 15:23:00,
2013-05-28 08:24:00,53.4,52.0,29.41,ESE,113,0.0,0.0,95,0.00,,---,0.08,VWS V13.01,2013-05-28 15:24:00,
2013-05-28 08:26:00,53.4,52.0,29.41,ESE,113,0.0,0.0,95,0.00,,---,0.08,VWS V13.01,2013-05-28 15:26:00,
2013-05-28 08:27:00,53.4,52.0,29.41,ESE,113,0.0,0.0,95,0.00,,---,0.08,VWS V13.01,2013-05-28 15:27:00,
2013-05-28 08:28:00,53.4,52.0,29.41,East,82,0.0,0.0,95,0.00,,---,0.08,VWS V13.01,2013-05-28 15:28:00,
2013-05-28 08:29:00,53.4,52.0,29.41,East,82,0.0,0.0,95,0.00,,---,0.08,VWS V13.01,2013-05-28 15:29:00,
2013-05-28 08:31:00,53.8,52.4,29.41,East,79,0.0,0.0,95,0.00,,---,0.08,VWS V13.01,2013-05-28 15:31:00,
2013-05-28 08:32:00,53.8,52.4,29.41,East,79,0.0,0.0,95,0.00,,---,0.08,VWS V13.01,2013-05-28 15:32:00,
2013-05-28 08:33:00,53.8,52.4,29.41,East,79,0.0,0.0,95,0.00,,---,0.08,VWS V13.01,2013-05-28 15:33:00,
2013-05-28 08:35:00,53.8,52.4,29.41,East,79,0.0,0.0,95,0.00,,---,0.08,VWS V13.01,2013-05-28 15:35:00,
2013-05-28 08:37:00,53.8,52.4,29.41,SSW,198,0.0,0.0,95,0.00,,---,0.08,VWS V13.01,2013-05-28 15:37:00,
2013-05-28 08:38:00,53.8,52.4,29.41,SSW,198,0.0,0.0,95,0.00,,---,0.08,VWS V13.01,2013-05-28 15:38:00,
2013-05-28 08:40:00,53.8,52.4,29.41,SSW,198,0.0,0.0,95,0.00,,---,0.08,VWS V13.01,2013-05-28 15:40:00,
2013-05-28 08:42:00,54.1,52.7,29.41,WSW,239,0.0,0.0,95,0.00,,---,0.08,VWS V13.01,2013-05-28 15:42:00,
2013-05-28 08:43:00,54.1,52.7,29.41,WSW,249,0.0,0.0,95,0.00,,---,0.08,VWS V13.01,2013-05-28 15:43:00,
2013-05-28 08:44:00,54.1,52.7,29.41,WSW,249,0.0,0.0,95,0.00,,---,0.08,VWS V13.01,2013-05-28 15:44:00,
2013-05-28 08:45:00,54.1,52.7,29.41,WSW,249,0.0,0.0,95,0.00,,---,0.08,VWS V13.01,2013-05-28 15:45:00,
2013-05-28 08:47:00,54.1,52.7,29.41,WSW,249,0.0,0.0,95,0.00,,---,0.08,VWS V13.01,2013-05-28 15:47:00,
2013-05-28 08:48:00,54.1,52.7,29.41,WSW,249,0.0,0.0,95,0.00,,---,0.08,VWS V13.01,2013-05-28 15:48:00,
2013-05-28 08:49:00,54.3,52.9,29.41,WSW,249,0.0,0.0,95,0.00,,---,0.08,VWS V13.01,2013-05-28 15:49:00,
2013-05-28 08:50:00,54.3,52.9,29.41,WSW,249,0.0,0.0,95,0.00,,---,0.08,VWS V13.01,2013-05-28 15:50:00,
2013-05-28 08:52:00,54.3,52.9,29.41,WSW,249,0.0,0.0,95,0.00,,---,0.08,VWS V13.01,2013-05-28 15:52:00,
2013-05-28 08:53:00,54.3,52.9,29.41,WSW,249,0.0,0.0,95,0.00,,---,0.08,VWS V13.01,2013-05-28 15:53:00,
2013-05-28 08:54:00,54.3,52.9,29.41,WSW,248,0.0,0.0,95,0.00,,---,0.08,VWS V13.01,2013-05-28 15:54:00,
2013-05-28 08:55:00,54.3,52.9,29.41,ESE,121,0.0,0.0,95,0.00,,---,0.08,VWS V13.01,2013-05-28 15:55:00,
2013-05-28 08:57:00,54.3,52.9,29.41,ESE,121,0.0,0.0,95,0.00,,---,0.08,VWS V13.01,2013-05-28 15:57:00,
2013-05-28 08:58:00,54.3,52.9,29.41,ESE,121,0.0,0.0,95,0.00,,---,0.08,VWS V13.01,2013-05-28 15:58:00,
2013-05-28 09:00:00,54.5,52.8,29.41,West,278,2.2,2.2,94,0.00,,---,0.08,VWS V13.01,2013-05-28 16:00:00,
2013-05-28 09:02:00,54.5,52.8,29.41,WSW,246,3.6,3.6,94,0.00,,---,0.08,VWS V13.01,2013-05-28 16:02:00,
2013-05-28 09:03:00,54.5,52.8,29.41,WSW,246,3.6,3.6,94,0.00,,---,0.08,VWS V13.01,2013-05-28 16:03:00,
2013-05-28 09:05:00,54.5,52.8,29.41,South,169,2.7,2.7,94,0.00,,---,0.08,VWS V13.01,2013-05-28 16:05:00,
2013-05-28 09:07:00,54.5,52.8,29.41,WSW,253,2.2,2.2,94,0.00,,---,0.08,VWS V13.01,2013-05-28 16:07:00,
2013-05-28 09:08:00,54.5,52.8,29.41,WSW,253,2.2,2.2,94,0.00,,---,0.08,VWS V13.01,2013-05-28 16:08:00,
2013-05-28 09:10:00,54.5,52.8,29.41,WSW,253,0.0,0.0,94,0.00,,---,0.08,VWS V13.01,2013-05-28 16:10:00,
2013-05-28 09:11:00,54.5,52.8,29.41,WSW,253,0.0,0.0,94,0.00,,---,0.08,VWS V13.01,2013-05-28 16:11:00,
2013-05-28 09:12:00,54.5,52.8,29.41,WSW,253,0.0,0.0,94,0.00,,---,0.08,VWS V13.01,2013-05-28 16:12:00,
2013-05-28 09:13:00,54.5,52.8,29.41,WSW,253,0.0,0.0,94,0.00,,---,0.08,VWS V13.01,2013-05-28 16:13:00,
2013-05-28 09:15:00,54.9,53.2,29.41,WSW,253,0.0,0.0,94,0.00,,---,0.08,VWS V13.01,2013-05-28 16:15:00,
2013-05-28 09:16:00,54.9,53.2,29.41,NW,314,2.7,2.7,94,0.00,,---,0.08,VWS V13.01,2013-05-28 16:16:00,
2013-05-28 09:18:00,55.2,53.5,29.41,NW,314,2.7,2.7,94,0.00,,---,0.08,VWS V13.01,2013-05-28 16:18:00,
2013-05-28 09:19:00,55.2,53.5,29.41,NW,314,2.7,2.7,94,0.00,,---,0.08,VWS V13.01,2013-05-28 16:19:00,
2013-05-28 09:20:00,55.2,53.5,29.41,West,259,3.1,3.1,94,0.00,,---,0.08,VWS V13.01,2013-05-28 16:20:00,
2013-05-28 09:21:00,55.2,53.5,29.41,West,259,3.1,3.1,94,0.00,,---,0.08,VWS V13.01,2013-05-28 16:21:00,
2013-05-28 09:23:00,55.2,53.5,29.41,WSW,248,0.0,0.0,94,0.00,,---,0.08,VWS V13.01,2013-05-28 16:23:00,
2013-05-28 09:24:00,55.2,53.5,29.41,WSW,248,0.0,0.0,94,0.00,,---,0.08,VWS V13.01,2013-05-28 16:24:00,
2013-05-28 09:25:00,55.9,53.7,29.41,WSW,248,0.0,0.0,92,0.00,,---,0.08,VWS V13.01,2013-05-28 16:25:00,
2013-05-28 09:26:00,55.9,53.7,29.41,WSW,248,0.0,0.0,92,0.00,,---,0.08,VWS V13.01,2013-05-28 16:26:00,
2013-05-28 09:28:00,55.9,53.7,29.41,WSW,245,0.0,3.6,92,0.00,,---,0.08,VWS V13.01,2013-05-28 16:28:00,
2013-05-28 09:29:00,55.9,53.7,29.41,WSW,245,0.0,0.0,92,0.00,,---,0.08,VWS V13.01,2013-05-28 16:29:00,
2013-05-28 09:31:00,55.9,53.7,29.41,WSW,245,0.0,0.0,92,0.00,,---,0.08,VWS V13.01,2013-05-28 16:31:00,
2013-05-28 09:33:00,55.9,53.7,29.41,ESE,109,2.2,2.2,92,0.00,,---,0.08,VWS V13.01,2013-05-28 16:33:00,
2013-05-28 09:34:00,55.9,53.7,29.41,SSW,212,2.2,2.2,92,0.00,,---,0.08,VWS V13.01,2013-05-28 16:34:00,
2013-05-28 09:36:00,56.1,53.5,29.41,WSW,254,0.0,2.2,91,0.00,,---,0.08,VWS V13.01,2013-05-28 16:36:00,
2013-05-28 09:38:00,56.1,53.5,29.41,West,281,0.0,0.0,91,0.00,,---,0.08,VWS V13.01,2013-05-28 16:38:00,
2013-05-28 09:39:00,56.1,53.5,29.41,West,281,0.0,0.0,91,0.00,,---,0.08,VWS V13.01,2013-05-28 16:39:00,
2013-05-28 09:40:00,56.1,53.5,29.41,West,281,0.0,0.0,91,0.00,,---,0.08,VWS V13.01,2013-05-28 16:40:00,
2013-05-28 09:41:00,56.1,53.5,29.41,WSW,252,3.6,3.6,91,0.00,,---,0.08,VWS V13.01,2013-05-28 16:41:00,
2013-05-28 09:43:00,56.1,53.5,29.41,WSW,252,3.6,3.6,91,0.00,,---,0.08,VWS V13.01,2013-05-28 16:43:00,
2013-05-28 09:44:00,56.3,53.1,29.41,WSW,252,3.6,3.6,89,0.00,,---,0.08,VWS V13.01,2013-05-28 16:44:00,
2013-05-28 09:45:00,56.3,53.1,29.41,WSW,252,3.6,3.6,89,0.00,,---,0.08,VWS V13.01,2013-05-28 16:45:00,
2013-05-28 09:46:00,56.3,53.1,29.41,WSW,253,0.0,3.6,89,0.00,,---,0.08,VWS V13.01,2013-05-28 16:46:00,
2013-05-28 09:47:00,56.3,53.1,29.41,SSE,164,2.7,2.7,89,0.00,,---,0.08,VWS V13.01,2013-05-28 16:47:00,
2013-05-28 09:49:00,56.3,53.1,29.41,SSW,212,2.2,2.7,89,0.00,,---,0.08,VWS V13.01,2013-05-28 16:49:00,
2013-05-28 09:50:00,56.3,53.1,29.41,WNW,292,2.7,2.7,89,0.00,,---,0.08,VWS V13.01,2013-05-28 16:50:00,
2013-05-28 09:51:00,56.3,53.1,29.41,WNW,292,2.7,2.7,89,0.00,,---,0.08,VWS V13.01,2013-05-28 16:51:00,
2013-05-28 09:52:00,56.3,53.1,29.41,WNW,292,2.7,2.7,89,0.00,,---,0.08,VWS V13.01,2013-05-28 16:52:00,
2013-05-28 09:55:00,56.7,52.8,29.41,WSW,247,3.1,3.1,87,0.00,,---,0.08,VWS V13.01,2013-05-28 16:55:00,
2013-05-28 09:56:00,56.7,52.5,29.41,SW,218,2.2,3.6,86,0.00,,---,0.08,VWS V13.01,2013-05-28 16:56:00,
2013-05-28 09:57:00,56.7,52.5,29.41,SW,234,3.6,8.1,86,0.00,,---,0.08,VWS V13.01,2013-05-28 16:57:00,
2013-05-28 10:00:00,56.7,52.2,29.41,SW,222,0.0,0.0,85,0.00,,---,0.08,VWS V13.01,2013-05-28 17:00:00,
2013-05-28 10:01:00,56.7,52.2,29.41,SW,236,3.1,3.1,85,0.00,,---,0.08,VWS V13.01,2013-05-28 17:01:00,
2013-05-28 10:02:00,56.7,51.9,29.41,WSW,254,2.2,2.7,84,0.00,,---,0.08,VWS V13.01,2013-05-28 17:02:00,
2013-05-28 10:05:00,56.8,52.1,29.41,West,272,3.6,3.6,84,0.00,,---,0.08,VWS V13.01,2013-05-28 17:05:00,
2013-05-28 10:06:00,56.8,52.1,29.41,SSE,150,0.0,2.7,84,0.00,,---,0.08,VWS V13.01,2013-05-28 17:06:00,
2013-05-28 10:07:00,56.8,52.1,29.41,SE,140,2.2,2.7,84,0.00,,---,0.08,VWS V13.01,2013-05-28 17:07:00,
2013-05-28 10:10:00,56.8,52.1,29.41,WSW,246,3.1,3.1,84,0.00,,---,0.08,VWS V13.01,2013-05-28 17:10:00,
2013-05-28 10:11:00,56.8,52.1,29.41,West,279,2.7,3.6,84,0.00,,---,0.08,VWS V13.01,2013-05-28 17:11:00,
2013-05-28 10:12:00,56.8,51.7,29.41,West,263,2.7,5.8,83,0.00,,---,0.08,VWS V13.01,2013-05-28 17:12:00,
2013-05-28 10:15:00,56.8,51.7,29.41,West,273,4.0,4.0,83,0.00,,---,0.08,VWS V13.01,2013-05-28 17:15:00,
2013-05-28 10:16:00,56.8,51.4,29.41,WSW,239,2.7,4.0,82,0.00,,---,0.08,VWS V13.01,2013-05-28 17:16:00,
2013-05-28 10:17:00,56.8,51.4,29.41,WSW,245,6.7,6.7,82,0.00,,---,0.08,VWS V13.01,2013-05-28 17:17:00,
2013-05-28 10:20:00,56.8,51.1,29.41,West,273,5.4,5.8,81,0.00,,---,0.08,VWS V13.01,2013-05-28 17:20:00,
2013-05-28 10:21:00,56.8,51.1,29.41,WSW,253,4.0,5.8,81,0.00,,---,0.08,VWS V13.01,2013-05-28 17:21:00,
2013-05-28 10:22:00,56.8,51.1,29.41,West,273,4.5,5.4,81,0.00,,---,0.08,VWS V13.01,2013-05-28 17:22:00,
2013-05-28 10:25:00,57.0,50.9,29.41,SW,214,4.0,5.8,80,0.00,,---,0.08,VWS V13.01,2013-05-28 17:25:00,
2013-05-28 10:26:00,57.0,50.9,29.41,West,281,4.0,4.0,80,0.00,,---,0.08,VWS V13.01,2013-05-28 17:26:00,
2013-05-28 10:27:00,57.0,50.9,29.41,NNW,334,2.2,3.1,80,0.00,,---,0.08,VWS V13.01,2013-05-28 17:27:00,
2013-05-28 10:30:00,57.2,50.8,29.41,West,264,4.0,4.0,79,0.00,,---,0.08,VWS V13.01,2013-05-28 17:30:00,
2013-05-28 10:31:00,57.2,50.8,29.44,WSW,244,4.9,4.9,79,0.00,,---,0.08,VWS V13.01,2013-05-28 17:31:00,
2013-05-28 10:33:00,57.2,51.1,29.44,WSW,252,2.7,2.7,80,0.00,,---,0.08,VWS V13.01,2013-05-28 17:33:00,
2013-05-28 10:36:00,57.4,51.3,29.44,WSW,252,4.0,4.0,80,0.00,,---,0.08,VWS V13.01,2013-05-28 17:36:00,
2013-05-28 10:38:00,57.6,51.1,29.44,WSW,246,0.0,2.2,79,0.00,,---,0.08,VWS V13.01,2013-05-28 17:38:00,
2013-05-28 10:41:00,57.6,51.1,29.44,SW,235,3.6,3.6,79,0.00,,---,0.08,VWS V13.01,2013-05-28 17:41:00,
2013-05-28 10:42:00,57.6,51.1,29.44,West,264,5.4,5.4,79,0.00,,---,0.08,VWS V13.01,2013-05-28 17:42:00,
2013-05-28 10:43:00,57.6,51.1,29.44,WNW,296,2.2,2.7,79,0.00,,---,0.08,VWS V13.01,2013-05-28 17:43:00,
2013-05-28 10:46:00,57.6,50.8,29.44,SW,230,0.0,2.7,78,0.00,,---,0.08,VWS V13.01,2013-05-28 17:46:00,
2013-05-28 10:47:00,57.6,50.8,29.44,West,269,3.6,3.6,78,0.00,,---,0.08,VWS V13.01,2013-05-28 17:47:00,
2013-05-28 10:48:00,57.6,50.8,29.44,SW,220,5.8,6.3,78,0.00,,---,0.08,VWS V13.01,2013-05-28 17:48:00,
2013-05-28 10:51:00,57.6,50.8,29.44,WSW,258,0.0,0.0,78,0.00,,---,0.08,VWS V13.01,2013-05-28 17:51:00,
2013-05-28 10:52:00,57.6,50.8,29.44,WSW,258,0.0,0.0,78,0.00,,---,0.08,VWS V13.01,2013-05-28 17:52:00,
2013-05-28 10:53:00,57.6,51.1,29.44,WSW,253,4.0,4.0,79,0.00,,---,0.08,VWS V13.01,2013-05-28 17:53:00,
2013-05-28 10:56:00,57.4,50.9,29.44,SW,215,2.7,4.0,79,0.00,,---,0.08,VWS V13.01,2013-05-28 17:56:00,
2013-05-28 10:58:00,57.4,50.9,29.44,SW,215,0.0,0.0,79,0.00,,---,0.08,VWS V13.01,2013-05-28 17:58:00,
2013-05-28 11:01:00,57.6,50.8,29.44,SSW,193,0.0,0.0,78,0.00,,---,0.08,VWS V13.01,2013-05-28 18:01:00,
2013-05-28 11:03:00,57.7,50.9,29.44,SSE,147,2.7,2.7,78,0.00,,---,0.08,VWS V13.01,2013-05-28 18:03:00,
2013-05-28 11:06:00,58.3,50.8,29.44,ESE,111,0.0,0.0,76,0.00,,---,0.08,VWS V13.01,2013-05-28 18:06:00,
2013-05-28 11:08:00,58.6,51.5,29.44,NW,320,3.1,3.1,77,0.00,,---,0.08,VWS V13.01,2013-05-28 18:08:00,
2013-05-28 11:11:00,59.4,51.8,29.44,East,101,2.7,3.1,76,0.00,,---,0.08,VWS V13.01,2013-05-28 18:11:00,
2013-05-28 11:12:00,59.4,51.8,29.44,WSW,244,3.1,3.1,76,0.00,,---,0.08,VWS V13.01,2013-05-28 18:12:00,
2013-05-28 11:13:00,59.2,51.3,29.44,SW,230,3.6,3.6,75,0.00,,---,0.08,VWS V13.01,2013-05-28 18:13:00,
2013-05-28 11:14:00,59.4,51.5,29.44,West,263,4.0,4.0,75,0.00,,---,0.08,VWS V13.01,2013-05-28 18:14:00,
2013-05-28 11:16:00,59.4,51.1,29.41,South,177,0.0,0.0,74,0.00,,---,0.08,VWS V13.01,2013-05-28 18:16:00,
2013-05-28 11:17:00,59.4,51.1,29.41,ESE,114,2.2,3.1,74,0.00,,---,0.08,VWS V13.01,2013-05-28 18:17:00,
2013-05-28 11:18:00,59.4,51.1,29.41,WSW,247,4.9,4.9,74,0.00,,---,0.08,VWS V13.01,2013-05-28 18:18:00,
2013-05-28 11:19:00,59.4,50.7,29.41,SSW,192,2.2,2.2,73,0.00,,---,0.08,VWS V13.01,2013-05-28 18:19:00,
2013-05-28 11:21:00,59.7,51.1,29.41,SW,219,8.1,8.1,73,0.00,,---,0.08,VWS V13.01,2013-05-28 18:21:00,
2013-05-28 11:22:00,59.7,51.1,29.41,SW,222,2.2,8.1,73,0.00,,---,0.08,VWS V13.01,2013-05-28 18:22:00,
2013-05-28 11:23:00,59.9,51.2,29.41,WSW,246,2.7,3.1,73,0.00,,---,0.08,VWS V13.01,2013-05-28 18:23:00,
2013-05-28 11:24:00,59.9,51.2,29.41,SSE,154,3.1,3.1,73,0.00,,---,0.08,VWS V13.01,2013-05-28 18:24:00,
2013-05-28 11:26:00,60.3,51.6,29.41,SSE,161,2.7,2.7,73,0.00,,---,0.08,VWS V13.01,2013-05-28 18:26:00,
2013-05-28 11:27:00,60.3,51.6,29.41,WNW,289,3.6,3.6,73,0.00,,---,0.08,VWS V13.01,2013-05-28 18:27:00,
2013-05-28 11:28:00,60.3,51.6,29.41,West,262,2.7,2.7,73,0.00,,---,0.08,VWS V13.01,2013-05-28 18:28:00,
2013-05-28 11:29:00,60.3,51.6,29.41,SW,236,4.0,5.4,73,0.00,,---,0.08,VWS V13.01,2013-05-28 18:29:00,
2013-05-28 11:32:00,60.1,51.0,29.44,West,278,2.2,2.2,72,0.00,,---,0.08,VWS V13.01,2013-05-28 18:32:00,
2013-05-28 11:33:00,60.1,50.7,29.44,West,275,4.0,4.0,71,0.00,,---,0.08,VWS V13.01,2013-05-28 18:33:00,
2013-05-28 11:34:00,60.1,50.7,29.44,West,272,5.8,5.8,71,0.00,,---,0.08,VWS V13.01,2013-05-28 18:34:00,
2013-05-28 11:37:00,60.3,50.8,29.44,SSW,211,0.0,0.0,71,0.00,,---,0.08,VWS V13.01,2013-05-28 18:37:00,
2013-05-28 11:39:00,60.6,51.6,29.44,SE,131,0.0,0.0,72,0.00,,---,0.08,VWS V13.01,2013-05-28 18:39:00,
2013-05-28 11:42:00,61.0,51.9,29.44,SSE,155,3.1,3.1,72,0.00,,---,0.08,VWS V13.01,2013-05-28 18:42:00,
2013-05-28 11:44:00,61.0,51.5,29.44,SSE,147,2.2,2.7,71,0.00,,---,0.08,VWS V13.01,2013-05-28 18:44:00,
2013-05-28 11:47:00,60.6,51.2,29.44,West,266,2.2,2.7,71,0.00,,---,0.08,VWS V13.01,2013-05-28 18:47:00,
2013-05-28 11:49:00,60.6,51.2,29.44,WNW,287,3.1,3.1,71,0.00,,---,0.08,VWS V13.01,2013-05-28 18:49:00,
2013-05-28 11:52:00,60.1,50.7,29.44,West,259,2.7,2.7,71,0.00,,---,0.08,VWS V13.01,2013-05-28 18:52:00,
2013-05-28 11:53:00,60.1,50.7,29.44,West,259,0.0,3.1,71,0.00,,---,0.08,VWS V13.01,2013-05-28 18:53:00,
2013-05-28 11:54:00,59.9,50.5,29.44,West,263,4.9,4.9,71,0.00,,---,0.08,VWS V13.01,2013-05-28 18:54:00,
2013-05-28 11:57:00,59.5,50.1,29.44,West,277,3.1,3.1,71,0.00,,---,0.08,VWS V13.01,2013-05-28 18:57:00,
2013-05-28 11:58:00,59.5,50.1,29.44,NW,307,3.6,3.6,71,0.00,,---,0.08,VWS V13.01,2013-05-28 18:58:00,
2013-05-28 11:59:00,59.5,50.5,29.44,West,270,2.7,2.7,72,0.00,,---,0.08,VWS V13.01,2013-05-28 18:59:00,
2013-05-28 12:02:00,59.4,50.3,29.44,SW,229,2.2,6.7,72,0.00,,---,0.08,VWS V13.01,2013-05-28 19:02:00,
2013-05-28 12:03:00,59.4,50.3,29.44,WSW,253,3.6,6.7,72,0.00,,---,0.08,VWS V13.01,2013-05-28 19:03:00,
2013-05-28 12:04:00,59.4,50.7,29.44,SW,225,2.2,3.1,73,0.00,,---,0.08,VWS V13.01,2013-05-28 19:04:00,
2013-05-28 12:07:00,59.2,50.5,29.44,WSW,241,2.2,2.7,73,0.00,,---,0.08,VWS V13.01,2013-05-28 19:07:00,
2013-05-28 12:08:00,59.2,50.5,29.44,WSW,241,0.0,2.7,73,0.00,,---,0.08,VWS V13.01,2013-05-28 19:08:00,
2013-05-28 12:10:00,59.0,50.4,29.44,West,270,0.0,0.0,73,0.00,,---,0.08,VWS V13.01,2013-05-28 19:10:00,
2013-05-28 12:12:00,58.8,50.6,29.44,West,270,0.0,0.0,74,0.00,,---,0.08,VWS V13.01,2013-05-28 19:12:00,
2013-05-28 12:13:00,58.8,50.6,29.44,West,270,0.0,0.0,74,0.00,,---,0.08,VWS V13.01,2013-05-28 19:13:00,
2013-05-28 12:15:00,58.6,50.4,29.44,WSW,251,2.7,2.7,74,0.00,,---,0.08,VWS V13.01,2013-05-28 19:15:00,
2013-05-28 12:17:00,58.6,50.4,29.44,West,275,3.1,3.1,74,0.00,,---,0.08,VWS V13.01,2013-05-28 19:17:00,
2013-05-28 12:18:00,58.5,50.2,29.44,West,274,2.7,3.6,74,0.00,,---,0.08,VWS V13.01,2013-05-28 19:18:00,
2013-05-28 12:20:00,58.5,50.2,29.44,SW,231,2.2,5.4,74,0.00,,---,0.08,VWS V13.01,2013-05-28 19:20:00,
2013-05-28 12:23:00,58.8,50.9,29.44,SSE,166,0.0,0.0,75,0.00,,---,0.08,VWS V13.01,2013-05-28 19:23:00,
2013-05-28 12:24:00,58.8,50.9,29.44,SSE,166,0.0,2.2,75,0.00,,---,0.08,VWS V13.01,2013-05-28 19:24:00,
2013-05-28 12:25:00,59.2,51.3,29.44,SW,232,4.9,4.9,75,0.00,,---,0.08,VWS V13.01,2013-05-28 19:25:00,
2013-05-28 12:28:00,59.4,51.5,29.44,SE,141,0.0,0.0,75,0.00,,---,0.08,VWS V13.01,2013-05-28 19:28:00,
2013-05-28 12:29:00,59.5,51.6,29.44,SW,233,4.0,4.0,75,0.00,,---,0.08,VWS V13.01,2013-05-28 19:29:00,
2013-05-28 12:30:00,59.9,52.0,29.44,SSW,207,3.6,3.6,75,0.00,,---,0.08,VWS V13.01,2013-05-28 19:30:00,
2013-05-28 12:33:00,60.1,52.1,29.44,WNW,289,5.8,5.8,75,0.00,,---,0.08,VWS V13.01,2013-05-28 19:33:00,
2013-05-28 12:34:00,60.3,52.3,29.44,West,263,0.0,0.0,75,0.00,,---,0.08,VWS V13.01,2013-05-28 19:34:00,
2013-05-28 12:35:00,60.1,51.8,29.44,WNW,284,2.2,2.7,74,0.00,,---,0.08,VWS V13.01,2013-05-28 19:35:00,
2013-05-28 12:38:00,60.3,52.0,29.44,SSW,197,3.6,4.0,74,0.00,,---,0.08,VWS V13.01,2013-05-28 19:38:00,
2013-05-28 12:39:00,60.1,51.8,29.44,SSW,204,3.1,3.1,74,0.00,,---,0.08,VWS V13.01,2013-05-28 19:39:00,
2013-05-28 12:41:00,60.3,51.6,29.44,West,259,5.8,7.6,73,0.00,,---,0.08,VWS V13.01,2013-05-28 19:41:00,
2013-05-28 12:43:00,60.3,51.6,29.44,WSW,251,4.9,5.4,73,0.00,,---,0.08,VWS V13.01,2013-05-28 19:43:00,
2013-05-28 12:44:00,60.3,51.6,29.44,South,185,4.9,4.9,73,0.00,,---,0.08,VWS V13.01,2013-05-28 19:44:00,
2013-05-28 12:46:00,60.1,51.0,29.44,West,270,2.7,3.6,72,0.00,,---,0.08,VWS V13.01,2013-05-28 19:46:00,
2013-05-28 12:48:00,60.1,51.0,29.44,West,267,6.3,6.3,72,0.00,,---,0.08,VWS V13.01,2013-05-28 19:48:00,
2013-05-28 12:49:00,60.1,51.0,29.44,WNW,286,3.6,4.9,72,0.00,,---,0.08,VWS V13.01,2013-05-28 19:49:00,
2013-05-28 12:51:00,59.9,50.9,29.44,WNW,285,4.9,4.9,72,0.00,,---,0.08,VWS V13.01,2013-05-28 19:51:00,
2013-05-28 12:53:00,59.5,50.5,29.44,NW,306,4.9,4.9,72,0.00,,---,0.08,VWS V13.01,2013-05-28 19:53:00,
2013-05-28 12:54:00,59.4,50.3,29.44,SSE,168,3.6,6.3,72,0.00,,---,0.08,VWS V13.01,2013-05-28 19:54:00,
2013-05-28 12:56:00,59.4,50.7,29.44,SSW,197,5.8,8.3,73,0.00,,---,0.08,VWS V13.01,2013-05-28 19:56:00,
2013-05-28 12:58:00,59.4,50.7,29.44,WSW,239,3.6,5.8,73,0.00,,---,0.08,VWS V13.01,2013-05-28 19:58:00,
2013-05-28 12:59:00,59.2,50.9,29.44,WSW,253,6.7,8.3,74,0.00,,---,0.08,VWS V13.01,2013-05-28 19:59:00,
2013-05-28 13:01:00,59.2,50.9,29.44,WSW,246,7.2,8.3,74,0.00,,---,0.08,VWS V13.01,2013-05-28 20:01:00,
2013-05-28 13:03:00,59.0,51.1,29.44,West,266,3.1,3.1,75,0.00,,---,0.08,VWS V13.01,2013-05-28 20:03:00,
2013-05-28 13:04:00,58.8,51.3,29.44,WNW,284,5.8,5.8,76,0.00,,---,0.08,VWS V13.01,2013-05-28 20:04:00,
2013-05-28 13:06:00,59.0,51.5,29.44,SE,145,3.1,3.1,76,0.00,,---,0.08,VWS V13.01,2013-05-28 20:06:00,
2013-05-28 13:09:00,59.0,51.8,29.44,NNE,24,0.0,2.2,77,0.00,,---,0.08,VWS V13.01,2013-05-28 20:09:00,
2013-05-28 13:11:00,58.8,51.6,29.44,WSW,251,2.7,2.7,77,0.00,,---,0.08,VWS V13.01,2013-05-28 20:11:00,
2013-05-28 13:12:00,58.8,51.6,29.44,North,0,5.4,5.4,77,0.00,,---,0.08,VWS V13.01,2013-05-28 20:12:00,
2013-05-28 13:14:00,58.8,51.6,29.44,WSW,257,3.6,3.6,77,0.00,,---,0.08,VWS V13.01,2013-05-28 20:14:00,
2013-05-28 13:15:00,58.8,51.6,29.44,SW,230,2.7,3.6,77,0.00,,---,0.08,VWS V13.01,2013-05-28 20:15:00,
2013-05-28 13:16:00,59.0,51.8,29.44,South,190,5.4,6.3,77,0.00,,---,0.08,VWS V13.01,2013-05-28 20:16:00,
2013-05-28 13:17:00,59.0,51.8,29.44,SW,225,4.9,5.4,77,0.00,,---,0.08,VWS V13.01,2013-05-28 20:17:00,
2013-05-28 13:19:00,59.2,52.0,29.44,WSW,241,5.8,5.8,77,0.00,,---,0.08,VWS V13.01,2013-05-28 20:19:00,
2013-05-28 13:20:00,59.2,52.0,29.44,West,264,5.8,5.8,77,0.00,,---,0.08,VWS V13.01,2013-05-28 20:20:00,
2013-05-28 13:21:00,59.2,52.0,29.44,West,274,3.1,5.4,77,0.00,,---,0.08,VWS V13.01,2013-05-28 20:21:00,
2013-05-28 13:22:00,59.0,51.5,29.44,West,271,4.9,7.6,76,0.00,,---,0.08,VWS V13.01,2013-05-28 20:22:00,
2013-05-28 13:24:00,59.0,51.5,29.44,SW,218,4.0,4.0,76,0.00,,---,0.08,VWS V13.01,2013-05-28 20:24:00,
2013-05-28 13:25:00,59.2,51.6,29.44,NW,304,3.6,4.0,76,0.00,,---,0.08,VWS V13.01,2013-05-28 20:25:00,
2013-05-28 13:26:00,59.2,51.6,29.44,South,187,3.6,5.8,76,0.00,,---,0.08,VWS V13.01,2013-05-28 20:26:00,
2013-05-28 13:28:00,59.0,51.1,29.44,WNW,303,7.6,7.6,75,0.00,,---,0.08,VWS V13.01,2013-05-28 20:28:00,
2013-05-28 13:29:00,59.0,51.1,29.44,WSW,249,5.8,8.1,75,0.00,,---,0.08,VWS V13.01,2013-05-28 20:29:00,
2013-05-28 13:30:00,59.2,51.3,29.44,WNW,302,7.6,8.3,75,0.00,,---,0.08,VWS V13.01,2013-05-28 20:30:00,
2013-05-28 13:31:00,59.2,51.3,29.44,WNW,298,4.0,4.0,75,0.00,,---,0.08,VWS V13.01,2013-05-28 20:31:00,
2013-05-28 13:33:00,59.4,51.5,29.44,North,353,6.3,6.3,75,0.00,,---,0.08,VWS V13.01,2013-05-28 20:33:00,
2013-05-28 13:34:00,59.5,51.6,29.44,WSW,241,3.6,3.6,75,0.00,,---,0.08,VWS V13.01,2013-05-28 20:34:00,
2013-05-28 13:35:00,59.7,51.8,29.44,West,268,5.4,5.4,75,0.00,,---,0.08,VWS V13.01,2013-05-28 20:35:00,
2013-05-28 13:36:00,59.9,52.3,29.44,West,275,4.0,5.8,76,0.00,,---,0.08,VWS V13.01,2013-05-28 20:36:00,
2013-05-28 13:38:00,60.1,52.5,29.44,WSW,253,6.3,6.3,76,0.00,,---,0.08,VWS V13.01,2013-05-28 20:38:00,
2013-05-28 13:39:00,60.3,52.7,29.44,SE,124,3.6,3.6,76,0.00,,---,0.08,VWS V13.01,2013-05-28 20:39:00,
2013-05-28 13:40:00,60.3,52.7,29.44,SE,124,0.0,3.1,76,0.00,,---,0.08,VWS V13.01,2013-05-28 20:40:00,
2013-05-28 13:41:00,60.4,52.8,29.44,SSE,166,3.6,3.6,76,0.00,,---,0.08,VWS V13.01,2013-05-28 20:41:00,
2013-05-28 13:42:00,60.4,52.5,29.44,ENE,62,2.7,3.6,75,0.00,,---,0.08,VWS V13.01,2013-05-28 20:42:00,
2013-05-28 13:44:00,60.6,53.0,29.44,SSW,209,2.2,3.1,76,0.00,,---,0.08,VWS V13.01,2013-05-28 20:44:00,
2013-05-28 13:45:00,60.6,53.0,29.44,SSW,209,0.0,0.0,76,0.00,,---,0.08,VWS V13.01,2013-05-28 20:45:00,
2013-05-28 13:46:00,60.8,52.8,29.44,SSW,209,0.0,2.2,75,0.00,,---,0.08,VWS V13.01,2013-05-28 20:46:00,
2013-05-28 13:47:00,61.0,53.0,29.44,East,82,3.6,3.6,75,0.00,,---,0.08,VWS V13.01,2013-05-28 20:47:00,
2013-05-28 13:49:00,61.2,53.2,29.44,WSW,242,3.1,6.3,75,0.00,,---,0.08,VWS V13.01,2013-05-28 20:49:00,
2013-05-28 13:50:00,61.2,53.2,29.44,NE,46,3.6,5.4,75,0.00,,---,0.08,VWS V13.01,2013-05-28 20:50:00,
2013-05-28 13:51:00,61.3,53.0,29.44,West,274,3.6,3.6,74,0.00,,---,0.08,VWS V13.01,2013-05-28 20:51:00,
2013-05-28 13:52:00,61.3,53.0,29.44,WSW,243,3.6,3.6,74,0.00,,---,0.08,VWS V13.01,2013-05-28 20:52:00,
2013-05-28 13:53:00,61.9,53.9,29.44,SSW,206,2.7,2.7,75,0.00,,---,0.08,VWS V13.01,2013-05-28 20:53:00,
2013-05-28 13:54:00,62.6,54.2,29.44,WSW,252,5.8,5.8,74,0.00,,---,0.08,VWS V13.01,2013-05-28 20:54:00,
2013-05-28 13:56:00,62.8,54.4,29.44,ESE,121,3.1,6.3,74,0.00,,---,0.08,VWS V13.01,2013-05-28 20:56:00,
2013-05-28 13:57:00,63.0,54.5,29.44,SW,225,5.8,5.8,74,0.00,,---,0.08,VWS V13.01,2013-05-28 20:57:00,
2013-05-28 13:58:00,63.1,54.3,29.44,WSW,247,2.7,5.4,73,0.00,,---,0.08,VWS V13.01,2013-05-28 20:58:00,
2013-05-28 14:00:00,63.3,54.5,29.44,SW,221,6.3,7.6,73,0.00,,---,0.08,VWS V13.01,2013-05-28 21:00:00,
2013-05-28 14:01:00,63.5,54.3,29.44,West,265,5.8,6.3,72,0.00,,---,0.08,VWS V13.01,2013-05-28 21:01:00,
2013-05-28 14:02:00,63.5,54.3,29.44,WNW,287,4.0,4.0,72,0.00,,---,0.08,VWS V13.01,2013-05-28 21:02:00,
2013-05-28 14:03:00,63.9,54.3,29.44,WSW,245,5.8,5.8,71,0.00,,---,0.08,VWS V13.01,2013-05-28 21:03:00,
2013-05-28 14:05:00,64.0,54.5,29.44,WSW,245,0.0,6.3,71,0.00,,---,0.08,VWS V13.01,2013-05-28 21:05:00,
2013-05-28 14:06:00,63.9,54.3,29.44,WSW,238,4.0,4.0,71,0.00,,---,0.08,VWS V13.01,2013-05-28 21:06:00,
2013-05-28 14:07:00,63.9,54.3,29.44,SSW,195,8.3,8.3,71,0.00,,---,0.08,VWS V13.01,2013-05-28 21:07:00,
2013-05-28 14:08:00,63.7,53.3,29.44,NNE,30,0.0,3.1,69,0.00,,---,0.08,VWS V13.01,2013-05-28 21:08:00,
2013-05-28 14:10:00,63.3,53.0,29.44,SW,228,5.4,5.4,69,0.00,,---,0.08,VWS V13.01,2013-05-28 21:10:00,
2013-05-28 14:11:00,63.1,52.8,29.44,WSW,239,5.8,7.6,69,0.00,,---,0.08,VWS V13.01,2013-05-28 21:11:00,
2013-05-28 14:12:00,63.0,52.2,29.44,ESE,120,4.0,4.0,68,0.00,,---,0.08,VWS V13.01,2013-05-28 21:12:00,
2013-05-28 14:13:00,62.8,52.5,29.44,WSW,252,2.7,6.3,69,0.00,,---,0.08,VWS V13.01,2013-05-28 21:13:00,
2013-05-28 14:14:00,62.8,52.5,29.44,South,189,5.8,7.6,69,0.00,,---,0.08,VWS V13.01,2013-05-28 21:14:00,
2013-05-28 14:16:00,62.6,51.9,29.44,NW,323,2.2,3.1,68,0.00,,---,0.08,VWS V13.01,2013-05-28 21:16:00,
2013-05-28 14:17:00,62.6,52.3,29.44,NNW,328,5.8,5.8,69,0.00,,---,0.08,VWS V13.01,2013-05-28 21:17:00,
2013-05-28 14:18:00,62.4,52.1,29.44,WNW,284,5.4,7.2,69,0.00,,---,0.08,VWS V13.01,2013-05-28 21:18:00,
2013-05-28 14:20:00,62.2,51.6,29.44,West,266,8.1,8.3,68,0.00,,---,0.08,VWS V13.01,2013-05-28 21:20:00,
2013-05-28 14:21:00,61.9,51.2,29.44,West,277,6.3,6.3,68,0.00,,---,0.08,VWS V13.01,2013-05-28 21:21:00,
2013-05-28 14:22:00,61.9,51.2,29.44,ESE,118,3.1,3.1,68,0.00,,---,0.08,VWS V13.01,2013-05-28 21:22:00,
2013-05-28 14:24:00,61.9,51.2,29.44,West,265,4.0,8.7,68,0.00,,---,0.08,VWS V13.01,2013-05-28 21:24:00,
2013-05-28 14:25:00,61.9,51.2,29.44,WSW,256,6.3,6.3,68,0.00,,---,0.08,VWS V13.01,2013-05-28 21:25:00,
2013-05-28 14:26:00,61.9,51.2,29.44,NW,308,5.4,5.4,68,0.00,,---,0.08,VWS V13.01,2013-05-28 21:26:00,
2013-05-28 14:27:00,61.9,51.2,29.44,WNW,289,7.6,7.6,68,0.00,,---,0.08,VWS V13.01,2013-05-28 21:27:00,
2013-05-28 14:29:00,61.9,51.2,29.44,West,278,8.1,8.1,68,0.00,,---,0.08,VWS V13.01,2013-05-28 21:29:00,
2013-05-28 14:30:00,61.7,50.6,29.44,West,273,4.9,6.3,67,0.00,,---,0.08,VWS V13.01,2013-05-28 21:30:00,
2013-05-28 14:31:00,61.5,50.9,29.44,SW,229,7.6,7.6,68,0.00,,---,0.08,VWS V13.01,2013-05-28 21:31:00,
2013-05-28 14:32:00,61.5,50.9,29.44,SSW,192,3.1,5.8,68,0.00,,---,0.08,VWS V13.01,2013-05-28 21:32:00,
2013-05-28 14:34:00,61.7,51.0,29.44,SSW,209,4.9,6.3,68,0.00,,---,0.08,VWS V13.01,2013-05-28 21:34:00,
2013-05-28 14:35:00,61.5,50.5,29.44,ESE,117,2.7,2.7,67,0.00,,---,0.08,VWS V13.01,2013-05-28 21:35:00,
2013-05-28 14:37:00,61.5,50.5,29.44,South,177,4.0,5.4,67,0.00,,---,0.08,VWS V13.01,2013-05-28 21:37:00,
2013-05-28 14:39:00,61.7,50.6,29.44,West,264,5.4,5.4,67,0.00,,---,0.08,VWS V13.01,2013-05-28 21:39:00,
2013-05-28 14:40:00,61.9,50.8,29.44,South,170,0.0,3.6,67,0.00,,---,0.08,VWS V13.01,2013-05-28 21:40:00,
2013-05-28 14:42:00,61.9,50.8,29.44,NW,304,3.1,3.1,67,0.00,,---,0.08,VWS V13.01,2013-05-28 21:42:00,
2013-05-28 14:43:00,61.9,50.4,29.44,ESE,118,3.6,3.6,66,0.00,,---,0.08,VWS V13.01,2013-05-28 21:43:00,
2013-05-28 14:44:00,61.9,50.4,29.44,West,271,2.7,5.8,66,0.00,,---,0.08,VWS V13.01,2013-05-28 21:44:00,
2013-05-28 14:45:00,61.9,50.4,29.44,SW,220,4.0,4.0,66,0.00,,---,0.08,VWS V13.01,2013-05-28 21:45:00,
2013-05-28 14:47:00,62.1,51.0,29.44,West,265,4.0,4.0,67,0.00,,---,0.08,VWS V13.01,2013-05-28 21:47:00,
2013-05-28 14:48:00,61.9,50.4,29.44,West,262,5.4,5.4,66,0.00,,---,0.08,VWS V13.01,2013-05-28 21:48:00,
2013-05-28 14:49:00,61.9,50.0,29.44,West,260,0.0,5.4,65,0.00,,---,0.08,VWS V13.01,2013-05-28 21:49:00,
2013-05-28 14:50:00,61.9,50.4,29.44,WSW,258,4.0,4.0,66,0.00,,---,0.08,VWS V13.01,2013-05-28 21:50:00,
2013-05-28 14:52:00,61.9,50.0,29.44,SW,216,4.0,4.9,65,0.00,,---,0.08,VWS V13.01,2013-05-28 21:52:00,
2013-05-28 14:53:00,61.9,50.0,29.44,WSW,241,3.1,3.1,65,0.00,,---,0.08,VWS V13.01,2013-05-28 21:53:00,
2013-05-28 14:54:00,61.9,50.4,29.44,SSW,209,2.7,3.6,66,0.00,,---,0.08,VWS V13.01,2013-05-28 21:54:00,
2013-05-28 14:55:00,62.1,50.2,29.44,South,187,2.7,5.4,65,0.00,,---,0.08,VWS V13.01,2013-05-28 21:55:00,
2013-05-28 14:57:00,62.1,50.2,29.44,WNW,289,5.8,8.1,65,0.00,,---,0.08,VWS V13.01,2013-05-28 21:57:00,
2013-05-28 14:58:00,62.1,50.2,29.44,West,270,4.9,4.9,65,0.00,,---,0.08,VWS V13.01,2013-05-28 21:58:00,
2013-05-28 14:59:00,61.9,50.0,29.44,WSW,251,4.0,5.4,65,0.00,,---,0.08,VWS V13.01,2013-05-28 21:59:00,
2013-05-28 15:01:00,61.7,49.4,29.44,SW,223,2.7,5.8,64,0.00,,---,0.08,VWS V13.01,2013-05-28 22:01:00,
2013-05-28 15:02:00,61.7,49.4,29.44,West,266,4.9,5.4,64,0.00,,---,0.08,VWS V13.01,2013-05-28 22:02:00,
2013-05-28 15:03:00,61.7,49.4,29.44,West,277,3.6,5.4,64,0.00,,---,0.08,VWS V13.01,2013-05-28 22:03:00,
2013-05-28 15:04:00,61.7,49.0,29.44,West,266,6.3,6.3,63,0.00,,---,0.08,VWS V13.01,2013-05-28 22:04:00,
2013-05-28 15:06:00,61.5,48.8,29.44,WSW,254,0.0,12.3,63,0.00,,---,0.08,VWS V13.01,2013-05-28 22:06:00,
2013-05-28 15:07:00,61.5,48.8,29.44,SW,222,5.8,7.6,63,0.00,,---,0.08,VWS V13.01,2013-05-28 22:07:00,
2013-05-28 15:08:00,61.5,48.8,29.44,South,188,5.4,7.6,63,0.00,,---,0.08,VWS V13.01,2013-05-28 22:08:00,
2013-05-28 15:09:00,61.5,48.8,29.44,NW,308,8.3,8.3,63,0.00,,---,0.08,VWS V13.01,2013-05-28 22:09:00,
2013-05-28 15:11:00,61.5,48.8,29.44,SSE,168,2.7,2.7,63,0.00,,---,0.08,VWS V13.01,2013-05-28 22:11:00,
2013-05-28 15:12:00,61.7,49.4,29.44,SSE,168,2.7,3.1,64,0.00,,---,0.08,VWS V13.01,2013-05-28 22:12:00,
2013-05-28 15:13:00,61.7,49.4,29.44,WSW,246,2.7,2.7,64,0.00,,---,0.08,VWS V13.01,2013-05-28 22:13:00,
2013-05-28 15:14:00,61.7,49.0,29.44,West,272,6.3,6.3,63,0.00,,---,0.08,VWS V13.01,2013-05-28 22:14:00,
2013-05-28 15:16:00,61.7,49.0,29.44,SSE,153,3.6,3.6,63,0.00,,---,0.08,VWS V13.01,2013-05-28 22:16:00,
2013-05-28 15:17:00,61.7,49.0,29.44,SSW,207,5.4,6.3,63,0.00,,---,0.08,VWS V13.01,2013-05-28 22:17:00,
2013-05-28 15:18:00,61.7,49.0,29.44,WNW,287,5.8,5.8,63,0.00,,---,0.08,VWS V13.01,2013-05-28 22:18:00,
2013-05-28 15:19:00,61.7,49.0,29.44,NW,306,2.7,2.7,63,0.00,,---,0.08,VWS V13.01,2013-05-28 22:19:00,
2013-05-28 15:21:00,61.3,48.7,29.44,WNW,295,5.4,5.4,63,0.00,,---,0.08,VWS V13.01,2013-05-28 22:21:00,
2013-05-28 15:23:00,61.3,48.7,29.44,WSW,245,3.6,3.6,63,0.00,,---,0.08,VWS V13.01,2013-05-28 22:23:00,
2013-05-28 15:24:00,61.2,48.5,29.44,West,268,5.8,5.8,63,0.00,,---,0.08,VWS V13.01,2013-05-28 22:24:00,
2013-05-28 15:26:00,61.0,48.3,29.44,West,267,4.0,4.0,63,0.00,,---,0.08,VWS V13.01,2013-05-28 22:26:00,
2013-05-28 15:28:00,60.8,48.1,29.44,WSW,242,2.2,4.9,63,0.00,,---,0.08,VWS V13.01,2013-05-28 22:28:00,
2013-05-28 15:29:00,60.8,48.6,29.44,WNW,290,6.3,6.3,64,0.00,,---,0.08,VWS V13.01,2013-05-28 22:29:00,
2013-05-28 15:30:00,60.8,48.6,29.44,WNW,287,6.3,6.3,64,0.00,,---,0.08,VWS V13.01,2013-05-28 22:30:00,
2013-05-28 15:31:00,60.8,48.6,29.44,West,262,3.6,3.6,64,0.00,,---,0.08,VWS V13.01,2013-05-28 22:31:00,
2013-05-28 15:33:00,60.6,48.4,29.44,West,259,5.8,8.3,64,0.00,,---,0.08,VWS V13.01,2013-05-28 22:33:00,
2013-05-28 15:34:00,60.6,48.8,29.44,SW,214,4.9,4.9,65,0.00,,---,0.08,VWS V13.01,2013-05-28 22:34:00,
2013-05-28 15:35:00,60.6,48.8,29.44,SW,214,4.9,4.9,65,0.00,,---,0.08,VWS V13.01,2013-05-28 22:35:00,
2013-05-28 15:36:00,60.6,48.8,29.44,WSW,247,0.0,0.0,65,0.00,,---,0.08,VWS V13.01,2013-05-28 22:36:00,
2013-05-28 15:38:00,60.6,49.2,29.44,South,186,2.7,3.1,66,0.00,,---,0.08,VWS V13.01,2013-05-28 22:38:00,
2013-05-28 15:39:00,60.6,49.2,29.44,WSW,255,2.7,3.1,66,0.00,,---,0.08,VWS V13.01,2013-05-28 22:39:00,
2013-05-28 15:40:00,60.6,49.2,29.44,WSW,255,0.0,3.1,66,0.00,,---,0.08,VWS V13.01,2013-05-28 22:40:00,
2013-05-28 15:41:00,60.8,49.4,29.44,WSW,245,3.6,3.6,66,0.00,,---,0.08,VWS V13.01,2013-05-28 22:41:00,
2013-05-28 15:43:00,60.8,49.4,29.44,West,266,2.7,4.9,66,0.00,,---,0.08,VWS V13.01,2013-05-28 22:43:00,
2013-05-28 15:44:00,60.8,49.4,29.44,WSW,247,2.2,4.9,66,0.00,,---,0.08,VWS V13.01,2013-05-28 22:44:00,
2013-05-28 15:45:00,60.8,49.4,29.44,SSW,203,4.0,5.4,66,0.00,,---,0.08,VWS V13.01,2013-05-28 22:45:00,
2013-05-28 15:47:00,60.6,49.2,29.44,WSW,238,2.7,4.0,66,0.00,,---,0.08,VWS V13.01,2013-05-28 22:47:00,
2013-05-28 15:48:00,60.8,49.8,29.44,SW,231,0.0,0.0,67,0.00,,---,0.08,VWS V13.01,2013-05-28 22:48:00,
2013-05-28 15:49:00,60.8,49.8,29.44,SW,231,0.0,0.0,67,0.00,,---,0.08,VWS V13.01,2013-05-28 22:49:00,
2013-05-28 15:50:00,61.0,50.0,29.44,WSW,258,3.6,4.9,67,0.00,,---,0.08,VWS V13.01,2013-05-28 22:50:00,
2013-05-28 15:52:00,61.0,50.0,29.44,NNW,329,4.9,5.8,67,0.00,,---,0.08,VWS V13.01,2013-05-28 22:52:00,
2013-05-28 15:54:00,60.8,49.8,29.44,SW,225,4.0,4.5,67,0.00,,---,0.08,VWS V13.01,2013-05-28 22:54:00,
2013-05-28 15:55:00,60.8,49.8,29.44,SW,231,3.6,5.8,67,0.00,,---,0.08,VWS V13.01,2013-05-28 22:55:00,
2013-05-28 15:57:00,60.6,49.6,29.44,NW,316,0.0,4.0,67,0.00,,---,0.08,VWS V13.01,2013-05-28 22:57:00,
2013-05-28 15:59:00,60.6,49.6,29.44,SSW,207,2.7,2.7,67,0.00,,---,0.08,VWS V13.01,2013-05-28 22:59:00,
2013-05-28 16:00:00,60.6,50.0,29.44,NNW,327,2.7,2.7,68,0.00,,---,0.08,VWS V13.01,2013-05-28 23:00:00,
2013-05-28 16:02:00,60.4,49.8,29.44,WSW,243,4.5,4.5,68,0.00,,---,0.08,VWS V13.01,2013-05-28 23:02:00,
2013-05-28 16:04:00,60.4,49.8,29.44,WSW,255,5.4,5.4,68,0.00,,---,0.08,VWS V13.01,2013-05-28 23:04:00,
2013-05-28 16:05:00,60.4,49.8,29.44,SW,221,3.1,4.9,68,0.00,,---,0.08,VWS V13.01,2013-05-28 23:05:00,
2013-05-28 16:07:00,60.4,49.8,29.44,SW,218,3.6,4.0,68,0.00,,---,0.08,VWS V13.01,2013-05-28 23:07:00,
2013-05-28 16:09:00,60.4,49.8,29.44,West,277,6.3,6.3,68,0.00,,---,0.08,VWS V13.01,2013-05-28 23:09:00,
2013-05-28 16:10:00,60.3,49.7,29.44,SW,232,4.9,4.9,68,0.00,,---,0.08,VWS V13.01,2013-05-28 23:10:00,
2013-05-28 16:13:00,60.3,50.1,29.44,East,97,0.0,2.2,69,0.00,,---,0.08,VWS V13.01,2013-05-28 23:13:00,
2013-05-28 16:14:00,60.3,50.1,29.44,ESE,112,0.0,0.0,69,0.00,,---,0.08,VWS V13.01,2013-05-28 23:14:00,
2013-05-28 16:15:00,60.3,50.1,29.44,SW,232,2.7,4.0,69,0.00,,---,0.08,VWS V13.01,2013-05-28 23:15:00,
2013-05-28 16:18:00,60.3,50.1,29.44,SSW,213,2.7,5.4,69,0.00,,---,0.08,VWS V13.01,2013-05-28 23:18:00,
2013-05-28 16:19:00,60.3,50.1,29.44,SW,235,0.0,4.0,69,0.00,,---,0.08,VWS V13.01,2013-05-28 23:19:00,
2013-05-28 16:20:00,60.3,50.1,29.44,SW,235,0.0,0.0,69,0.00,,---,0.08,VWS V13.01,2013-05-28 23:20:00,
2013-05-28 16:23:00,60.3,50.1,29.44,SSW,195,2.7,2.7,69,0.00,,---,0.08,VWS V13.01,2013-05-28 23:23:00,
2013-05-28 16:24:00,60.3,50.1,29.44,WSW,238,2.7,2.7,69,0.00,,---,0.08,VWS V13.01,2013-05-28 23:24:00,
2013-05-28 16:25:00,60.3,50.1,29.44,SSW,207,2.7,5.4,69,0.00,,---,0.08,VWS V13.01,2013-05-28 23:25:00,
2013-05-28 16:29:00,60.1,50.3,29.44,SE,127,2.2,2.2,70,0.00,,---,0.08,VWS V13.01,2013-05-28 23:29:00,
2013-05-28 16:30:00,59.9,50.5,29.44,SW,225,3.1,5.4,71,0.00,,---,0.08,VWS V13.01,2013-05-28 23:30:00,
2013-05-28 16:31:00,59.9,50.5,29.44,SW,225,3.1,5.4,71,0.00,,---,0.08,VWS V13.01,2013-05-28 23:31:00,
2013-05-28 16:34:00,59.9,50.5,29.44,SW,236,3.1,3.6,71,0.00,,---,0.08,VWS V13.01,2013-05-28 23:34:00,
2013-05-28 16:36:00,60.1,51.0,29.44,SW,229,3.1,3.1,72,0.00,,---,0.08,VWS V13.01,2013-05-28 23:36:00,
2013-05-28 16:39:00,60.4,51.8,29.44,SW,224,2.2,2.7,73,0.00,,---,0.08,VWS V13.01,2013-05-28 23:39:00,
2013-05-28 16:40:00,60.6,51.9,29.44,SW,223,0.0,0.0,73,0.00,,---,0.08,VWS V13.01,2013-05-28 23:40:00,
2013-05-28 16:41:00,60.6,52.3,29.44,SW,220,0.0,0.0,74,0.00,,---,0.08,VWS V13.01,2013-05-28 23:41:00,
2013-05-28 16:44:00,60.6,51.9,29.44,South,173,3.1,3.6,73,0.00,,---,0.08,VWS V13.01,2013-05-28 23:44:00,
2013-05-28 16:45:00,60.6,51.9,29.44,SSW,211,3.1,3.6,73,0.00,,---,0.08,VWS V13.01,2013-05-28 23:45:00,
2013-05-28 16:46:00,60.8,52.1,29.44,SSW,211,0.0,3.1,73,0.00,,---,0.08,VWS V13.01,2013-05-28 23:46:00,
2013-05-28 16:49:00,60.6,51.6,29.44,West,276,0.0,2.7,72,0.00,,---,0.08,VWS V13.01,2013-05-28 23:49:00,
2013-05-28 16:50:00,60.4,51.4,29.44,WSW,255,2.7,3.6,72,0.00,,---,0.08,VWS V13.01,2013-05-28 23:50:00,
2013-05-28 16:51:00,60.4,51.4,29.44,West,261,3.1,3.1,72,0.00,,---,0.08,VWS V13.01,2013-05-28 23:51:00,
2013-05-28 16:54:00,60.3,51.2,29.44,NW,310,4.0,5.4,72,0.00,,---,0.08,VWS V13.01,2013-05-28 23:54:00,
2013-05-28 16:55:00,60.3,51.2,29.44,SE,132,3.6,4.0,72,0.00,,---,0.08,VWS V13.01,2013-05-28 23:55:00,
2013-05-28 16:56:00,60.4,51.4,29.44,SE,131,2.7,2.7,72,0.00,,---,0.08,VWS V13.01,2013-05-28 23:56:00,
2013-05-28 16:57:00,60.4,51.4,29.44,SW,229,4.9,4.9,72,0.00,,---,0.08,VWS V13.01,2013-05-28 23:57:00,
2013-05-28 17:00:00,60.4,51.0,29.44,NW,312,3.6,4.0,71,0.00,,---,0.08,VWS V13.01,2013-05-29 00:00:00,
2013-05-28 17:01:00,60.3,50.8,29.44,WNW,298,4.9,4.9,71,0.00,,---,0.08,VWS V13.01,2013-05-29 00:01:00,
2013-05-28 17:02:00,60.1,50.7,29.44,WNW,303,5.4,5.4,71,0.00,,---,0.08,VWS V13.01,2013-05-29 00:02:00,
2013-05-28 17:05:00,60.1,50.7,29.44,SW,236,7.6,7.6,71,0.00,,---,0.08,VWS V13.01,2013-05-29 00:05:00,
2013-05-28 17:06:00,60.1,50.7,29.44,SW,223,7.6,7.6,71,0.00,,---,0.08,VWS V13.01,2013-05-29 00:06:00,
2013-05-28 17:07:00,60.1,50.7,29.44,South,173,5.8,6.3,71,0.00,,---,0.08,VWS V13.01,2013-05-29 00:07:00,
2013-05-28 17:10:00,59.9,50.9,29.44,West,265,4.9,4.9,72,0.00,,---,0.08,VWS V13.01,2013-05-29 00:10:00,
2013-05-28 17:11:00,59.9,50.5,29.44,WSW,247,3.1,3.1,71,0.00,,---,0.08,VWS V13.01,2013-05-29 00:11:00,
2013-05-28 17:12:00,59.7,50.3,29.44,West,265,3.6,4.0,71,0.00,,---,0.08,VWS V13.01,2013-05-29 00:12:00,
2013-05-28 17:15:00,59.7,50.7,29.44,West,267,9.6,9.6,72,0.00,,---,0.08,VWS V13.01,2013-05-29 00:15:00,
2013-05-28 17:16:00,59.5,50.1,29.44,WNW,302,3.1,9.6,71,0.00,,---,0.08,VWS V13.01,2013-05-29 00:16:00,
2013-05-28 17:17:00,59.5,50.1,29.44,West,279,8.1,8.1,71,0.00,,---,0.08,VWS V13.01,2013-05-29 00:17:00,
2013-05-28 17:20:00,59.5,50.1,29.44,WSW,258,0.0,5.4,71,0.00,,---,0.08,VWS V13.01,2013-05-29 00:20:00,
2013-05-28 17:21:00,59.5,50.1,29.44,ESE,120,5.8,5.8,71,0.00,,---,0.08,VWS V13.01,2013-05-29 00:21:00,
2013-05-28 17:22:00,59.5,50.1,29.44,WNW,296,4.0,5.4,71,0.00,,---,0.08,VWS V13.01,2013-05-29 00:22:00,
2013-05-28 17:25:00,59.4,50.3,29.44,WSW,241,6.3,6.3,72,0.00,,---,0.08,VWS V13.01,2013-05-29 00:25:00,
2013-05-28 17:26:00,59.4,50.3,29.44,WSW,242,5.4,5.4,72,0.00,,---,0.08,VWS V13.01,2013-05-29 00:26:00,
2013-05-28 17:27:00,59.4,50.3,29.44,WSW,251,5.8,5.8,72,0.00,,---,0.08,VWS V13.01,2013-05-29 00:27:00,
2013-05-28 17:30:00,59.4,50.3,29.44,NNW,344,4.0,4.0,72,0.00,,---,0.08,VWS V13.01,2013-05-29 00:30:00,
2013-05-28 17:31:00,59.4,50.3,29.44,SSW,211,2.7,2.7,72,0.00,,---,0.08,VWS V13.01,2013-05-29 00:31:00,
2013-05-28 17:33:00,59.2,50.2,29.44,SW,223,3.6,6.3,72,0.00,,---,0.08,VWS V13.01,2013-05-29 00:33:00,
2013-05-28 17:35:00,59.2,50.2,29.44,NW,306,4.5,5.8,72,0.00,,---,0.08,VWS V13.01,2013-05-29 00:35:00,
2013-05-28 17:36:00,59.0,50.0,29.44,WNW,289,2.2,3.6,72,0.00,,---,0.08,VWS V13.01,2013-05-29 00:36:00,
2013-05-28 17:38:00,58.6,50.0,29.44,WNW,300,0.0,0.0,73,0.00,,---,0.08,VWS V13.01,2013-05-29 00:38:00,
2013-05-28 17:40:00,58.6,50.0,29.44,WNW,288,3.1,3.1,73,0.00,,---,0.08,VWS V13.01,2013-05-29 00:40:00,
2013-05-28 17:41:00,58.5,50.2,29.44,WSW,245,4.0,4.0,74,0.00,,---,0.08,VWS V13.01,2013-05-29 00:41:00,
2013-05-28 17:43:00,58.5,50.2,29.44,SW,222,2.2,3.1,74,0.00,,---,0.08,VWS V13.01,2013-05-29 00:43:00,
2013-05-28 17:46:00,58.1,49.9,29.44,SW,228,3.6,5.8,74,0.00,,---,0.08,VWS V13.01,2013-05-29 00:46:00,
2013-05-28 17:48:00,58.1,50.2,29.44,SW,220,2.2,2.2,75,0.00,,---,0.08,VWS V13.01,2013-05-29 00:48:00,
2013-05-28 17:51:00,57.9,50.4,29.44,South,189,0.0,2.2,76,0.00,,---,0.08,VWS V13.01,2013-05-29 00:51:00,
2013-05-28 17:53:00,57.9,50.4,29.44,WSW,250,3.6,4.0,76,0.00,,---,0.08,VWS V13.01,2013-05-29 00:53:00,
2013-05-28 17:56:00,57.6,50.1,29.44,North,0,0.0,0.0,76,0.00,,---,0.08,VWS V13.01,2013-05-29 00:56:00,
2013-05-28 17:57:00,57.6,50.1,29.44,North,0,0.0,0.0,76,0.00,,---,0.08,VWS V13.01,2013-05-29 00:57:00,
2013-05-28 17:58:00,57.6,50.4,29.44,SE,141,2.7,2.7,77,0.00,,---,0.08,VWS V13.01,2013-05-29 00:58:00,
2013-05-28 18:01:00,57.6,50.4,29.44,SW,214,0.0,0.0,77,0.00,,---,0.08,VWS V13.01,2013-05-29 01:01:00,
2013-05-28 18:02:00,57.6,50.4,29.44,SW,214,0.0,0.0,77,0.00,,---,0.08,VWS V13.01,2013-05-29 01:02:00,
2013-05-28 18:03:00,57.6,50.8,29.44,WSW,243,0.0,0.0,78,0.00,,---,0.08,VWS V13.01,2013-05-29 01:03:00,
2013-05-28 18:06:00,57.6,50.8,29.44,SW,235,0.0,0.0,78,0.00,,---,0.08,VWS V13.01,2013-05-29 01:06:00,
2013-05-28 18:07:00,57.6,50.8,29.44,SW,235,0.0,0.0,78,0.00,,---,0.08,VWS V13.01,2013-05-29 01:07:00,
2013-05-28 18:08:00,57.6,51.1,29.44,SE,126,0.0,2.2,79,0.00,,---,0.08,VWS V13.01,2013-05-29 01:08:00,
2013-05-28 18:11:00,57.6,51.1,29.44,WSW,253,4.9,4.9,79,0.00,,---,0.08,VWS V13.01,2013-05-29 01:11:00,
2013-05-28 18:12:00,57.6,51.1,29.44,West,265,4.0,4.0,79,0.00,,---,0.08,VWS V13.01,2013-05-29 01:12:00,
2013-05-28 18:13:00,57.7,51.3,29.44,West,277,3.6,4.0,79,0.00,,---,0.08,VWS V13.01,2013-05-29 01:13:00,
2013-05-28 18:16:00,57.7,51.3,29.41,WSW,247,2.2,3.1,79,0.00,,---,0.08,VWS V13.01,2013-05-29 01:16:00,
2013-05-28 18:17:00,57.7,51.3,29.41,WSW,247,2.2,3.1,79,0.00,,---,0.08,VWS V13.01,2013-05-29 01:17:00,
2013-05-28 18:19:00,57.7,51.3,29.41,WSW,244,4.0,4.0,79,0.00,,---,0.08,VWS V13.01,2013-05-29 01:19:00,
2013-05-28 18:21:00,57.6,51.1,29.41,SW,231,2.7,4.9,79,0.00,,---,0.08,VWS V13.01,2013-05-29 01:21:00,
2013-05-28 18:22:00,57.6,51.1,29.41,SW,233,2.7,4.9,79,0.00,,---,0.08,VWS V13.01,2013-05-29 01:22:00,
2013-05-28 18:24:00,57.7,51.3,29.41,WSW,247,3.1,3.1,79,0.00,,---,0.08,VWS V13.01,2013-05-29 01:24:00,
2013-05-28 18:26:00,57.7,51.3,29.41,SSW,203,0.0,2.2,79,0.00,,---,0.08,VWS V13.01,2013-05-29 01:26:00,
2013-05-28 18:27:00,57.7,51.3,29.41,SSW,199,2.7,2.7,79,0.00,,---,0.08,VWS V13.01,2013-05-29 01:27:00,
2013-05-28 18:29:00,57.7,51.3,29.41,West,261,3.1,3.6,79,0.00,,---,0.08,VWS V13.01,2013-05-29 01:29:00,
2013-05-28 18:31:00,57.6,51.5,29.41,SW,232,0.0,0.0,80,0.00,,---,0.08,VWS V13.01,2013-05-29 01:31:00,
2013-05-28 18:32:00,57.6,51.5,29.41,SW,232,0.0,0.0,80,0.00,,---,0.08,VWS V13.01,2013-05-29 01:32:00,
2013-05-28 18:34:00,57.6,51.5,29.41,NNW,345,0.0,3.1,80,0.00,,---,0.08,VWS V13.01,2013-05-29 01:34:00,
2013-05-28 18:36:00,57.7,51.6,29.41,SE,125,2.2,3.1,80,0.00,,---,0.08,VWS V13.01,2013-05-29 01:36:00,
2013-05-28 18:37:00,57.7,51.6,29.41,SE,125,0.0,2.2,80,0.00,,---,0.08,VWS V13.01,2013-05-29 01:37:00,
2013-05-28 18:38:00,57.7,51.6,29.41,SW,232,2.7,2.7,80,0.00,,---,0.08,VWS V13.01,2013-05-29 01:38:00,
2013-05-28 18:39:00,57.7,51.6,29.41,WSW,245,2.2,3.6,80,0.00,,---,0.08,VWS V13.01,2013-05-29 01:39:00,
2013-05-28 18:41:00,57.7,51.6,29.41,ENE,66,0.0,0.0,80,0.00,,---,0.08,VWS V13.01,2013-05-29 01:41:00,
2013-05-28 18:42:00,57.7,51.6,29.41,ENE,61,0.0,2.2,80,0.00,,---,0.08,VWS V13.01,2013-05-29 01:42:00,
2013-05-28 18:43:00,57.6,51.5,29.41,ENE,61,0.0,0.0,80,0.00,,---,0.08,VWS V13.01,2013-05-29 01:43:00,
2013-05-28 18:45:00,57.7,51.6,29.41,WSW,247,4.0,4.0,80,0.00,,---,0.08,VWS V13.01,2013-05-29 01:45:00,
2013-05-28 18:47:00,57.6,51.5,29.41,WNW,300,3.1,4.9,80,0.00,,---,0.08,VWS V13.01,2013-05-29 01:47:00,
2013-05-28 18:48:00,57.6,51.5,29.41,WSW,257,0.0,0.0,80,0.00,,---,0.08,VWS V13.01,2013-05-29 01:48:00,
2013-05-28 18:50:00,57.4,51.3,29.41,West,275,3.1,4.5,80,0.00,,---,0.08,VWS V13.01,2013-05-29 01:50:00,
2013-05-28 18:52:00,57.4,51.3,29.41,SW,229,3.6,3.6,80,0.00,,---,0.08,VWS V13.01,2013-05-29 01:52:00,
2013-05-28 18:53:00,57.4,51.3,29.41,SW,225,0.0,3.6,80,0.00,,---,0.08,VWS V13.01,2013-05-29 01:53:00,
2013-05-28 18:55:00,57.4,51.3,29.41,SSE,151,2.2,2.7,80,0.00,,---,0.08,VWS V13.01,2013-05-29 01:55:00,
2013-05-28 18:57:00,57.4,51.3,29.41,SSW,203,2.7,3.6,80,0.00,,---,0.08,VWS V13.01,2013-05-29 01:57:00,
2013-05-28 18:58:00,57.4,51.3,29.41,SW,217,2.7,3.6,80,0.00,,---,0.08,VWS V13.01,2013-05-29 01:58:00,
2013-05-28 19:00:00,57.2,51.1,29.41,SSW,213,2.7,2.7,80,0.00,,---,0.08,VWS V13.01,2013-05-29 02:00:00,
2013-05-28 19:02:00,57.2,51.1,29.41,West,264,3.6,3.6,80,0.00,,---,0.08,VWS V13.01,2013-05-29 02:02:00,
2013-05-28 19:03:00,57.2,51.1,29.41,West,265,4.0,4.0,80,0.00,,---,0.08,VWS V13.01,2013-05-29 02:03:00,
2013-05-28 19:04:00,57.2,51.1,29.41,WNW,286,2.2,4.0,80,0.00,,---,0.08,VWS V13.01,2013-05-29 02:04:00,
2013-05-28 19:05:00,57.2,51.1,29.41,West,268,4.0,4.0,80,0.00,,---,0.08,VWS V13.01,2013-05-29 02:05:00,
2013-05-28 19:07:00,57.2,51.1,29.41,WSW,240,2.7,2.7,80,0.00,,---,0.08,VWS V13.01,2013-05-29 02:07:00,
2013-05-28 19:08:00,57.2,51.1,29.41,WSW,240,0.0,2.2,80,0.00,,---,0.08,VWS V13.01,2013-05-29 02:08:00,
2013-05-28 19:09:00,57.2,51.1,29.41,WSW,240,0.0,2.2,80,0.00,,---,0.08,VWS V13.01,2013-05-29 02:09:00,
2013-05-28 19:10:00,57.2,51.1,29.41,WSW,240,0.0,0.0,80,0.00,,---,0.08,VWS V13.01,2013-05-29 02:10:00,
2013-05-28 19:12:00,57.2,51.1,29.41,East,89,0.0,0.0,80,0.00,,---,0.08,VWS V13.01,2013-05-29 02:12:00,
2013-05-28 19:13:00,57.2,51.1,29.41,East,84,0.0,0.0,80,0.00,,---,0.08,VWS V13.01,2013-05-29 02:13:00,
2013-05-28 19:14:00,57.2,51.1,29.41,East,84,0.0,0.0,80,0.00,,---,0.08,VWS V13.01,2013-05-29 02:14:00,
2013-05-28 19:15:00,57.2,51.1,29.41,NE,54,0.0,0.0,80,0.00,,---,0.08,VWS V13.01,2013-05-29 02:15:00,
2013-05-28 19:17:00,57.2,51.1,29.41,NNE,17,2.2,2.2,80,0.00,,---,0.08,VWS V13.01,2013-05-29 02:17:00,
2013-05-28 19:18:00,57.2,51.1,29.41,NNE,17,2.2,2.2,80,0.00,,---,0.08,VWS V13.01,2013-05-29 02:18:00,
2013-05-28 19:21:00,57.2,51.1,29.41,NNE,17,0.0,0.0,80,0.00,,---,0.08,VWS V13.01,2013-05-29 02:21:00,
2013-05-28 19:22:00,57.2,51.1,29.41,NNE,17,0.0,0.0,80,0.00,,---,0.08,VWS V13.01,2013-05-29 02:22:00,
2013-05-28 19:23:00,57.2,51.1,29.41,NNE,17,0.0,0.0,80,0.00,,---,0.08,VWS V13.01,2013-05-29 02:23:00,
2013-05-28 19:24:00,57.2,51.1,29.41,NNE,17,0.0,0.0,80,0.00,,---,0.08,VWS V13.01,2013-05-29 02:24:00,
2013-05-28 19:26:00,57.2,51.1,29.41,SE,128,0.0,3.1,80,0.00,,---,0.08,VWS V13.01,2013-05-29 02:26:00,
2013-05-28 19:28:00,57.2,51.1,29.41,SE,128,0.0,0.0,80,0.00,,---,0.08,VWS V13.01,2013-05-29 02:28:00,
2013-05-28 19:29:00,57.2,51.1,29.41,SE,128,0.0,0.0,80,0.00,,---,0.08,VWS V13.01,2013-05-29 02:29:00,
2013-05-28 19:32:00,57.2,51.4,29.41,West,268,2.2,3.6,81,0.00,,---,0.08,VWS V13.01,2013-05-29 02:32:00,
2013-05-28 19:33:00,57.2,51.4,29.41,West,268,0.0,0.0,81,0.00,,---,0.08,VWS V13.01,2013-05-29 02:33:00,
2013-05-28 19:34:00,57.2,51.4,29.41,West,268,0.0,0.0,81,0.00,,---,0.08,VWS V13.01,2013-05-29 02:34:00,
2013-05-28 19:37:00,57.2,51.4,29.41,West,268,0.0,0.0,81,0.00,,---,0.08,VWS V13.01,2013-05-29 02:37:00,
2013-05-28 19:38:00,57.2,51.4,29.41,West,268,0.0,0.0,81,0.00,,---,0.08,VWS V13.01,2013-05-29 02:38:00,
2013-05-28 19:39:00,57.2,51.4,29.41,West,268,0.0,0.0,81,0.00,,---,0.08,VWS V13.01,2013-05-29 02:39:00,
2013-05-28 19:42:00,57.2,51.4,29.41,West,268,0.0,0.0,81,0.00,,---,0.08,VWS V13.01,2013-05-29 02:42:00,
2013-05-28 19:43:00,57.0,51.3,29.41,West,267,0.0,0.0,81,0.00,,---,0.08,VWS V13.01,2013-05-29 02:43:00,
2013-05-28 19:44:00,57.0,51.3,29.41,West,267,0.0,0.0,81,0.00,,---,0.08,VWS V13.01,2013-05-29 02:44:00,
2013-05-28 19:47:00,56.8,51.1,29.38,West,267,0.0,0.0,81,0.00,,---,0.08,VWS V13.01,2013-05-29 02:47:00,
2013-05-28 19:49:00,56.8,51.1,29.38,West,267,0.0,0.0,81,0.00,,---,0.08,VWS V13.01,2013-05-29 02:49:00,
2013-05-28 19:52:00,57.0,51.3,29.38,WSW,241,0.0,0.0,81,0.00,,---,0.08,VWS V13.01,2013-05-29 02:52:00,
2013-05-28 19:54:00,57.0,51.3,29.38,WSW,245,3.1,3.1,81,0.00,,---,0.08,VWS V13.01,2013-05-29 02:54:00,
2013-05-28 19:57:00,56.8,51.1,29.38,WSW,245,0.0,0.0,81,0.00,,---,0.08,VWS V13.01,2013-05-29 02:57:00,
2013-05-28 19:59:00,56.8,51.1,29.38,WSW,245,0.0,0.0,81,0.00,,---,0.08,VWS V13.01,2013-05-29 02:59:00,
2013-05-28 20:02:00,56.8,51.1,29.38,WSW,245,0.0,0.0,81,0.00,,---,0.08,VWS V13.01,2013-05-29 03:02:00,
2013-05-28 20:04:00,56.8,51.1,29.38,North,357,0.0,2.2,81,0.00,,---,0.08,VWS V13.01,2013-05-29 03:04:00,
2013-05-28 20:08:00,56.8,51.1,29.38,North,357,0.0,0.0,81,0.00,,---,0.08,VWS V13.01,2013-05-29 03:08:00,
2013-05-28 20:09:00,56.8,51.1,29.38,North,357,0.0,0.0,81,0.00,,---,0.08,VWS V13.01,2013-05-29 03:09:00,
2013-05-28 20:13:00,56.8,51.4,29.38,North,357,0.0,0.0,82,0.00,,---,0.08,VWS V13.01,2013-05-29 03:13:00,
2013-05-28 20:14:00,56.8,51.4,29.38,North,357,0.0,0.0,82,0.00,,---,0.08,VWS V13.01,2013-05-29 03:14:00,
2013-05-28 20:15:00,56.8,51.4,29.38,North,357,0.0,0.0,82,0.00,,---,0.08,VWS V13.01,2013-05-29 03:15:00,
2013-05-28 20:18:00,56.8,51.4,29.38,North,357,0.0,0.0,82,0.00,,---,0.08,VWS V13.01,2013-05-29 03:18:00,
2013-05-28 20:19:00,56.8,51.4,29.38,North,357,0.0,0.0,82,0.00,,---,0.08,VWS V13.01,2013-05-29 03:19:00,
2013-05-28 20:20:00,56.8,51.4,29.38,North,357,0.0,0.0,82,0.00,,---,0.08,VWS V13.01,2013-05-29 03:20:00,
2013-05-28 20:23:00,56.7,51.2,29.38,North,357,0.0,0.0,82,0.00,,---,0.08,VWS V13.01,2013-05-29 03:23:00,
2013-05-28 20:24:00,56.7,51.2,29.38,North,357,0.0,0.0,82,0.00,,---,0.08,VWS V13.01,2013-05-29 03:24:00,
2013-05-28 20:25:00,56.7,51.2,29.38,North,357,0.0,0.0,82,0.00,,---,0.08,VWS V13.01,2013-05-29 03:25:00,
2013-05-28 20:29:00,56.7,51.2,29.38,West,270,0.0,0.0,82,0.00,,---,0.08,VWS V13.01,2013-05-29 03:29:00,
2013-05-28 20:30:00,56.7,51.2,29.38,West,270,0.0,0.0,82,0.00,,---,0.08,VWS V13.01,2013-05-29 03:30:00,
2013-05-28 20:31:00,56.5,51.1,29.38,West,270,0.0,0.0,82,0.00,,---,0.08,VWS V13.01,2013-05-29 03:31:00,
2013-05-28 20:34:00,56.3,50.9,29.38,West,270,0.0,0.0,82,0.00,,---,0.08,VWS V13.01,2013-05-29 03:34:00,
2013-05-28 20:35:00,56.3,50.9,29.38,West,270,0.0,0.0,82,0.00,,---,0.08,VWS V13.01,2013-05-29 03:35:00,
2013-05-28 20:36:00,56.3,51.2,29.38,WNW,284,0.0,0.0,83,0.00,,---,0.08,VWS V13.01,2013-05-29 03:36:00,
2013-05-28 20:39:00,56.3,51.2,29.38,WNW,284,0.0,0.0,83,0.00,,---,0.08,VWS V13.01,2013-05-29 03:39:00,
2013-05-28 20:40:00,56.1,51.0,29.38,WNW,284,0.0,0.0,83,0.00,,---,0.08,VWS V13.01,2013-05-29 03:40:00,
2013-05-28 20:41:00,56.1,51.0,29.38,WNW,282,0.0,0.0,83,0.00,,---,0.08,VWS V13.01,2013-05-29 03:41:00,
2013-05-28 20:44:00,56.1,51.0,29.38,WNW,282,0.0,0.0,83,0.00,,---,0.08,VWS V13.01,2013-05-29 03:44:00,
2013-05-28 20:45:00,56.1,51.0,29.38,WNW,282,0.0,0.0,83,0.00,,---,0.08,VWS V13.01,2013-05-29 03:45:00,
2013-05-28 20:46:00,56.1,51.0,29.38,WNW,282,0.0,0.0,83,0.00,,---,0.08,VWS V13.01,2013-05-29 03:46:00,
2013-05-28 20:49:00,56.1,51.0,29.38,WNW,282,0.0,0.0,83,0.00,,---,0.08,VWS V13.01,2013-05-29 03:49:00,
2013-05-28 20:50:00,56.1,51.0,29.38,WNW,282,0.0,0.0,83,0.00,,---,0.08,VWS V13.01,2013-05-29 03:50:00,
2013-05-28 20:51:00,56.1,51.0,29.38,WNW,282,0.0,0.0,83,0.00,,---,0.08,VWS V13.01,2013-05-29 03:51:00,
2013-05-28 20:54:00,56.1,51.0,29.38,WNW,282,0.0,0.0,83,0.00,,---,0.08,VWS V13.01,2013-05-29 03:54:00,
2013-05-28 20:55:00,56.1,51.0,29.38,WNW,282,0.0,0.0,83,0.00,,---,0.08,VWS V13.01,2013-05-29 03:55:00,
2013-05-28 20:56:00,56.1,51.0,29.38,WNW,282,0.0,0.0,83,0.00,,---,0.08,VWS V13.01,2013-05-29 03:56:00,
2013-05-28 20:59:00,56.1,51.0,29.38,WNW,283,0.0,0.0,83,0.00,,---,0.08,VWS V13.01,2013-05-29 03:59:00,
2013-05-28 21:00:00,56.1,51.0,29.38,WNW,283,0.0,0.0,83,0.00,,---,0.08,VWS V13.01,2013-05-29 04:00:00,
2013-05-28 21:01:00,56.1,51.0,29.38,WNW,283,0.0,0.0,83,0.00,,---,0.08,VWS V13.01,2013-05-29 04:01:00,
2013-05-28 21:06:00,55.9,50.9,29.38,WNW,283,0.0,0.0,83,0.00,,---,0.08,VWS V13.01,2013-05-29 04:06:00,
2013-05-28 21:11:00,55.9,50.9,29.38,WNW,283,0.0,0.0,83,0.00,,---,0.08,VWS V13.01,2013-05-29 04:11:00,
2013-05-28 21:16:00,55.9,50.9,29.38,ESE,114,0.0,2.2,83,0.00,,---,0.08,VWS V13.01,2013-05-29 04:16:00,
2013-05-28 21:21:00,55.6,50.5,29.38,ESE,103,0.0,0.0,83,0.00,,---,0.08,VWS V13.01,2013-05-29 04:21:00,
2013-05-28 21:26:00,55.6,50.8,29.38,ENE,62,2.7,2.7,84,0.00,,---,0.08,VWS V13.01,2013-05-29 04:26:00,
2013-05-28 21:31:00,55.4,50.7,29.38,SE,146,0.0,0.0,84,0.00,,---,0.08,VWS V13.01,2013-05-29 04:31:00,
2013-05-28 21:32:00,55.4,50.7,29.38,SE,146,0.0,0.0,84,0.00,,---,0.08,VWS V13.01,2013-05-29 04:32:00,
2013-05-28 21:36:00,55.4,50.7,29.38,SE,135,0.0,0.0,84,0.00,,---,0.08,VWS V13.01,2013-05-29 04:36:00,
2013-05-28 21:37:00,55.4,50.7,29.38,SE,135,0.0,0.0,84,0.00,,---,0.08,VWS V13.01,2013-05-29 04:37:00,
2013-05-28 21:41:00,55.0,50.6,29.38,SW,231,2.7,3.1,85,0.00,,---,0.08,VWS V13.01,2013-05-29 04:41:00,
2013-05-28 21:42:00,55.0,50.6,29.38,East,92,2.2,3.1,85,0.00,,---,0.08,VWS V13.01,2013-05-29 04:42:00,
2013-05-28 21:46:00,55.0,50.6,29.38,East,92,0.0,0.0,85,0.00,,---,0.08,VWS V13.01,2013-05-29 04:46:00,
2013-05-28 21:47:00,55.0,50.6,29.38,East,92,0.0,0.0,85,0.00,,---,0.08,VWS V13.01,2013-05-29 04:47:00,
2013-05-28 21:51:00,55.0,50.6,29.38,East,92,0.0,0.0,85,0.00,,---,0.08,VWS V13.01,2013-05-29 04:51:00,
2013-05-28 21:52:00,55.0,50.6,29.38,East,92,0.0,0.0,85,0.00,,---,0.08,VWS V13.01,2013-05-29 04:52:00,
2013-05-28 21:56:00,54.9,50.4,29.38,East,92,0.0,0.0,85,0.00,,---,0.08,VWS V13.01,2013-05-29 04:56:00,
2013-05-28 21:57:00,54.9,50.4,29.38,East,92,0.0,0.0,85,0.00,,---,0.08,VWS V13.01,2013-05-29 04:57:00,
2013-05-28 21:58:00,54.9,50.4,29.38,East,92,0.0,0.0,85,0.00,,---,0.08,VWS V13.01,2013-05-29 04:58:00,
2013-05-28 22:01:00,54.7,50.3,29.38,East,92,0.0,0.0,85,0.00,,---,0.08,VWS V13.01,2013-05-29 05:01:00,
2013-05-28 22:02:00,54.7,50.3,29.38,SE,142,0.0,0.0,85,0.00,,---,0.08,VWS V13.01,2013-05-29 05:02:00,
2013-05-28 22:03:00,54.7,50.3,29.38,South,190,2.7,2.7,85,0.00,,---,0.08,VWS V13.01,2013-05-29 05:03:00,
2013-05-28 22:06:00,54.7,50.3,29.38,South,190,0.0,0.0,85,0.00,,---,0.08,VWS V13.01,2013-05-29 05:06:00,
2013-05-28 22:07:00,54.7,50.3,29.38,South,190,0.0,0.0,85,0.00,,---,0.08,VWS V13.01,2013-05-29 05:07:00,
2013-05-28 22:08:00,54.9,50.4,29.38,South,190,0.0,0.0,85,0.00,,---,0.08,VWS V13.01,2013-05-29 05:08:00,
2013-05-28 22:12:00,54.7,50.3,29.38,South,190,0.0,0.0,85,0.00,,---,0.08,VWS V13.01,2013-05-29 05:12:00,
2013-05-28 22:13:00,54.5,50.4,29.38,SW,216,2.7,3.1,86,0.00,,---,0.08,VWS V13.01,2013-05-29 05:13:00,
2013-05-28 22:17:00,54.5,50.4,29.38,SW,216,0.0,0.0,86,0.00,,---,0.08,VWS V13.01,2013-05-29 05:17:00,
2013-05-28 22:18:00,54.5,50.4,29.38,SW,227,2.7,2.7,86,0.00,,---,0.08,VWS V13.01,2013-05-29 05:18:00,
2013-05-28 22:22:00,54.3,50.5,29.38,SW,227,0.0,0.0,87,0.00,,---,0.08,VWS V13.01,2013-05-29 05:22:00,
2013-05-28 22:23:00,54.3,50.5,29.38,SW,227,0.0,0.0,87,0.00,,---,0.08,VWS V13.01,2013-05-29 05:23:00,
2013-05-28 22:27:00,54.1,50.4,29.38,SW,227,0.0,0.0,87,0.00,,---,0.08,VWS V13.01,2013-05-29 05:27:00,
2013-05-28 22:28:00,54.1,50.4,29.38,SW,227,0.0,0.0,87,0.00,,---,0.08,VWS V13.01,2013-05-29 05:28:00,
2013-05-28 22:32:00,54.1,50.7,29.38,SW,227,0.0,0.0,88,0.00,,---,0.08,VWS V13.01,2013-05-29 05:32:00,
2013-05-28 22:33:00,54.1,50.7,29.38,SW,227,0.0,0.0,88,0.00,,---,0.08,VWS V13.01,2013-05-29 05:33:00,
2013-05-28 22:34:00,54.1,50.7,29.38,SW,227,0.0,0.0,88,0.00,,---,0.08,VWS V13.01,2013-05-29 05:34:00,
2013-05-28 22:37:00,54.3,50.8,29.38,SW,227,0.0,0.0,88,0.00,,---,0.08,VWS V13.01,2013-05-29 05:37:00,
2013-05-28 22:38:00,54.5,51.0,29.38,SW,227,0.0,0.0,88,0.00,,---,0.08,VWS V13.01,2013-05-29 05:38:00,
2013-05-28 22:39:00,54.5,51.0,29.38,SW,227,0.0,0.0,88,0.00,,---,0.08,VWS V13.01,2013-05-29 05:39:00,
2013-05-28 22:42:00,54.5,51.0,29.38,SW,227,0.0,0.0,88,0.00,,---,0.08,VWS V13.01,2013-05-29 05:42:00,
2013-05-28 22:43:00,54.5,51.0,29.38,SW,227,0.0,0.0,88,0.00,,---,0.08,VWS V13.01,2013-05-29 05:43:00,
2013-05-28 22:44:00,54.5,51.0,29.38,SW,227,0.0,0.0,88,0.00,,---,0.08,VWS V13.01,2013-05-29 05:44:00,
2013-05-28 22:47:00,54.3,50.8,29.35,SW,227,0.0,0.0,88,0.00,,---,0.08,VWS V13.01,2013-05-29 05:47:00,
2013-05-28 22:48:00,54.3,50.8,29.35,SW,227,0.0,0.0,88,0.00,,---,0.08,VWS V13.01,2013-05-29 05:48:00,
2013-05-28 22:49:00,54.3,50.8,29.35,SW,227,0.0,0.0,88,0.00,,---,0.08,VWS V13.01,2013-05-29 05:49:00,
2013-05-28 22:52:00,54.3,50.8,29.35,SW,227,0.0,0.0,88,0.00,,---,0.08,VWS V13.01,2013-05-29 05:52:00,
2013-05-28 22:53:00,54.3,50.8,29.35,SW,227,0.0,0.0,88,0.00,,---,0.08,VWS V13.01,2013-05-29 05:53:00,
2013-05-28 22:54:00,54.3,50.8,29.35,SW,227,0.0,0.0,88,0.00,,---,0.08,VWS V13.01,2013-05-29 05:54:00,
2013-05-28 22:58:00,54.3,50.8,29.35,SW,227,0.0,0.0,88,0.00,,---,0.08,VWS V13.01,2013-05-29 05:58:00,
2013-05-28 22:59:00,54.3,50.8,29.35,SW,227,0.0,0.0,88,0.00,,---,0.08,VWS V13.01,2013-05-29 05:59:00,
2013-05-28 23:03:00,54.1,51.0,29.35,SW,227,0.0,0.0,89,0.00,,---,0.08,VWS V13.01,2013-05-29 06:03:00,
2013-05-28 23:04:00,54.1,51.0,29.35,SW,227,0.0,0.0,89,0.00,,---,0.08,VWS V13.01,2013-05-29 06:04:00,
2013-05-28 23:05:00,54.1,51.0,29.35,SW,227,0.0,0.0,89,0.00,,---,0.08,VWS V13.01,2013-05-29 06:05:00,
2013-05-28 23:08:00,54.0,50.8,29.35,SW,227,0.0,0.0,89,0.00,,---,0.08,VWS V13.01,2013-05-29 06:08:00,
2013-05-28 23:09:00,54.0,50.8,29.35,SW,227,0.0,0.0,89,0.00,,---,0.08,VWS V13.01,2013-05-29 06:09:00,
2013-05-28 23:10:00,54.0,50.8,29.35,SW,227,0.0,0.0,89,0.00,,---,0.08,VWS V13.01,2013-05-29 06:10:00,
2013-05-28 23:13:00,53.8,50.6,29.35,SW,227,0.0,0.0,89,0.00,,---,0.08,VWS V13.01,2013-05-29 06:13:00,
2013-05-28 23:14:00,53.8,50.6,29.35,SW,227,0.0,0.0,89,0.00,,---,0.08,VWS V13.01,2013-05-29 06:14:00,
2013-05-28 23:15:00,53.8,50.6,29.35,SW,227,0.0,0.0,89,0.00,,---,0.08,VWS V13.01,2013-05-29 06:15:00,
2013-05-28 23:18:00,53.8,50.6,29.35,SW,227,0.0,0.0,89,0.00,,---,0.08,VWS V13.01,2013-05-29 06:18:00,
2013-05-28 23:19:00,53.8,50.6,29.35,SW,227,0.0,0.0,89,0.00,,---,0.08,VWS V13.01,2013-05-29 06:19:00,
2013-05-28 23:20:00,53.8,50.6,29.35,SW,227,0.0,0.0,89,0.00,,---,0.08,VWS V13.01,2013-05-29 06:20:00,
2013-05-28 23:23:00,54.0,50.8,29.35,SW,227,0.0,0.0,89,0.00,,---,0.08,VWS V13.01,2013-05-29 06:23:00,
2013-05-28 23:24:00,53.8,50.6,29.35,SW,227,0.0,0.0,89,0.00,,---,0.08,VWS V13.01,2013-05-29 06:24:00,
2013-05-28 23:25:00,54.0,50.8,29.35,SW,227,0.0,0.0,89,0.00,,---,0.08,VWS V13.01,2013-05-29 06:25:00,
2013-05-28 23:28:00,54.0,50.8,29.35,SW,227,0.0,0.0,89,0.00,,---,0.08,VWS V13.01,2013-05-29 06:28:00,
2013-05-28 23:29:00,53.8,50.6,29.35,SW,227,0.0,0.0,89,0.00,,---,0.08,VWS V13.01,2013-05-29 06:29:00,
2013-05-28 23:30:00,53.8,50.6,29.35,SW,227,0.0,0.0,89,0.00,,---,0.08,VWS V13.01,2013-05-29 06:30:00,
2013-05-28 23:33:00,53.8,50.6,29.35,SW,227,0.0,0.0,89,0.00,,---,0.08,VWS V13.01,2013-05-29 06:33:00,
2013-05-28 23:34:00,53.8,50.6,29.35,SW,227,0.0,0.0,89,0.00,,---,0.08,VWS V13.01,2013-05-29 06:34:00,
2013-05-28 23:35:00,53.6,50.7,29.35,SW,227,0.0,0.0,90,0.00,,---,0.08,VWS V13.01,2013-05-29 06:35:00,
2013-05-28 23:38:00,53.4,50.6,29.35,SW,227,0.0,0.0,90,0.00,,---,0.08,VWS V13.01,2013-05-29 06:38:00,
2013-05-28 23:39:00,53.4,50.6,29.35,SW,227,0.0,0.0,90,0.00,,---,0.08,VWS V13.01,2013-05-29 06:39:00,
2013-05-28 23:40:00,53.2,50.4,29.35,SW,227,0.0,0.0,90,0.00,,---,0.08,VWS V13.01,2013-05-29 06:40:00,
2013-05-28 23:43:00,53.2,50.7,29.35,SW,227,0.0,0.0,91,0.00,,---,0.08,VWS V13.01,2013-05-29 06:43:00,
2013-05-28 23:44:00,53.2,50.7,29.35,SW,227,0.0,0.0,91,0.00,,---,0.08,VWS V13.01,2013-05-29 06:44:00,
2013-05-28 23:45:00,53.2,50.7,29.35,SW,227,0.0,0.0,91,0.00,,---,0.08,VWS V13.01,2013-05-29 06:45:00,
2013-05-28 23:48:00,53.4,50.9,29.35,SW,227,0.0,0.0,91,0.00,,---,0.08,VWS V13.01,2013-05-29 06:48:00,
2013-05-28 23:49:00,53.2,50.7,29.35,SW,227,0.0,0.0,91,0.00,,---,0.08,VWS V13.01,2013-05-29 06:49:00,
2013-05-28 23:50:00,53.2,50.7,29.35,SW,227,0.0,0.0,91,0.00,,---,0.08,VWS V13.01,2013-05-29 06:50:00,
2013-05-28 23:51:00,53.2,50.7,29.35,SW,227,0.0,0.0,91,0.00,,---,0.08,VWS V13.01,2013-05-29 06:51:00,
2013-05-28 23:54:00,53.2,50.7,29.35,SW,227,0.0,0.0,91,0.00,,---,0.08,VWS V13.01,2013-05-29 06:54:00,
2013-05-28 23:55:00,53.1,50.5,29.35,SW,227,0.0,0.0,91,0.00,,---,0.08,VWS V13.01,2013-05-29 06:55:00,
2013-05-28 23:56:00,53.1,50.5,29.35,SW,227,0.0,0.0,91,0.00,,---,0.08,VWS V13.01,2013-05-29 06:56:00,
2013-05-28 23:59:00,53.1,50.5,29.35,SW,227,0.0,0.0,91,0.00,,---,0.08,VWS V13.01,2013-05-29 06:59:00,